Wetterdaten: Sonntag, 27.01.2019
Datum Zeit Temp. Aussen Temp. o. S. +5cm Feuchte Auss Luftdruck Regen Sonnenschein Regendauer Solar Windben Empfang
27.01.2019 00:00 6,3 C 5,0 C 4,4 C 93 % 992,8 hPa 0,0 l/m 0 min 0 min 0 W/m 19,3 km/h (3 Bft) 100,00 %
27.01.2019 00:02 6,3 C 5,0 C 4,4 C 93 % 992,8 hPa 0,0 l/m 0 min 0 min 0 W/m 32,2 km/h (5 Bft) 97,56 %
27.01.2019 00:04 6,3 C 5,0 C 4,4 C 93 % 992,8 hPa 0,0 l/m 0 min 0 min 0 W/m 32,2 km/h (5 Bft) 100,00 %
27.01.2019 00:08 6,3 C 5,6 C 4,4 C 93 % 992,6 hPa 0,0 l/m 0 min 0 min 0 W/m 29,0 km/h (5 Bft) 100,00 %
27.01.2019 00:10 6,3 C 5,6 C 4,4 C 93 % 992,5 hPa 0,0 l/m 0 min 0 min 0 W/m 25,7 km/h (4 Bft) 100,00 %
27.01.2019 00:12 6,3 C 5,6 C 4,4 C 93 % 992,5 hPa 0,0 l/m 0 min 0 min 0 W/m 25,7 km/h (4 Bft) 100,00 %
27.01.2019 00:14 6,3 C 5,6 C 4,4 C 93 % 992,5 hPa 0,0 l/m 0 min 0 min 0 W/m 16,1 km/h (3 Bft) 100,00 %
27.01.2019 00:16 6,3 C 5,6 C 4,4 C 93 % 992,5 hPa 0,0 l/m 0 min 0 min 0 W/m 19,3 km/h (3 Bft) 100,00 %
27.01.2019 00:18 6,3 C 5,6 C 4,4 C 93 % 992,4 hPa 0,0 l/m 0 min 0 min 0 W/m 19,3 km/h (3 Bft) 100,00 %
27.01.2019 00:20 6,2 C 5,6 C 4,4 C 93 % 992,3 hPa 0,0 l/m 0 min 0 min 0 W/m 32,2 km/h (5 Bft) 100,00 %
27.01.2019 00:22 6,3 C 5,6 C 4,4 C 93 % 992,1 hPa 0,0 l/m 0 min 0 min 0 W/m 25,7 km/h (4 Bft) 100,00 %
27.01.2019 00:24 6,2 C 5,6 C 4,4 C 93 % 992,1 hPa 0,0 l/m 0 min 0 min 0 W/m 29,0 km/h (5 Bft) 100,00 %
27.01.2019 00:26 6,2 C 5,0 C 4,4 C 93 % 992,0 hPa 0,0 l/m 0 min 0 min 0 W/m 19,3 km/h (3 Bft) 93,62 %
27.01.2019 00:28 6,2 C 5,0 C 4,4 C 93 % 992,0 hPa 0,0 l/m 0 min 0 min 0 W/m 25,7 km/h (4 Bft) 97,83 %
27.01.2019 00:30 6,2 C 5,0 C 4,4 C 93 % 991,9 hPa 0,0 l/m 0 min 0 min 0 W/m 19,3 km/h (3 Bft) 97,87 %
27.01.2019 00:32 6,2 C 5,0 C 4,4 C 93 % 991,8 hPa 0,0 l/m 0 min 0 min 0 W/m 22,5 km/h (4 Bft) 100,00 %
27.01.2019 00:34 6,2 C 5,0 C 4,4 C 93 % 991,9 hPa 0,0 l/m 0 min 0 min 0 W/m 25,7 km/h (4 Bft) 95,74 %
27.01.2019 00:36 6,2 C 5,6 C 4,4 C 93 % 991,8 hPa 0,0 l/m 0 min 0 min 0 W/m 19,3 km/h (3 Bft) 97,87 %
27.01.2019 00:38 6,1 C 5,6 C 4,4 C 93 % 991,8 hPa 0,0 l/m 0 min 0 min 0 W/m 32,2 km/h (5 Bft) 97,87 %
27.01.2019 00:40 6,1 C 5,6 C 4,4 C 93 % 991,8 hPa 0,0 l/m 0 min 0 min 0 W/m 22,5 km/h (4 Bft) 97,83 %
27.01.2019 00:42 6,1 C 5,6 C 4,4 C 93 % 991,7 hPa 0,0 l/m 0 min 0 min 0 W/m 9,7 km/h (2 Bft) 97,87 %
27.01.2019 00:44 6,1 C 5,6 C 4,4 C 93 % 991,8 hPa 0,0 l/m 0 min 0 min 0 W/m 22,5 km/h (4 Bft) 97,87 %
27.01.2019 00:46 6,1 C 5,6 C 4,4 C 93 % 991,6 hPa 0,0 l/m 0 min 0 min 0 W/m 25,7 km/h (4 Bft) 97,87 %
27.01.2019 00:48 6,1 C 5,6 C 4,4 C 93 % 991,6 hPa 0,0 l/m 0 min 0 min 0 W/m 29,0 km/h (5 Bft) 97,87 %
27.01.2019 00:50 6,1 C 5,6 C 4,4 C 93 % 991,5 hPa 0,0 l/m 0 min 0 min 0 W/m 16,1 km/h (3 Bft) 97,83 %
27.01.2019 00:52 6,1 C 5,6 C 4,4 C 93 % 991,4 hPa 0,0 l/m 0 min 0 min 0 W/m 12,9 km/h (3 Bft) 91,49 %
27.01.2019 00:54 6,1 C 5,6 C 4,4 C 93 % 991,4 hPa 0,0 l/m 0 min 0 min 0 W/m 22,5 km/h (4 Bft) 97,87 %
27.01.2019 00:56 6,0 C 5,6 C 4,4 C 93 % 991,4 hPa 0,0 l/m 0 min 0 min 0 W/m 19,3 km/h (3 Bft) 95,74 %
27.01.2019 00:58 6,0 C 5,6 C 4,4 C 93 % 991,3 hPa 0,0 l/m 0 min 0 min 0 W/m 19,3 km/h (3 Bft) 95,74 %
27.01.2019 01:00 6,0 C 5,6 C 4,4 C 93 % 991,3 hPa 0,0 l/m 0 min 0 min 0 W/m 22,5 km/h (4 Bft) 95,74 %
27.01.2019 01:02 5,9 C 5,6 C 4,4 C 93 % 991,3 hPa 0,0 l/m 0 min 0 min 0 W/m 16,1 km/h (3 Bft) 95,74 %
27.01.2019 01:04 5,9 C 5,6 C 4,4 C 93 % 991,3 hPa 0,0 l/m 0 min 0 min 0 W/m 19,3 km/h (3 Bft) 93,62 %
27.01.2019 01:06 5,9 C 5,6 C 4,4 C 93 % 991,2 hPa 0,0 l/m 0 min 0 min 0 W/m 16,1 km/h (3 Bft) 95,74 %
27.01.2019 01:08 5,9 C 5,6 C 4,4 C 93 % 991,1 hPa 0,0 l/m 0 min 0 min 0 W/m 19,3 km/h (3 Bft) 93,75 %
27.01.2019 01:10 5,9 C 5,6 C 4,4 C 93 % 991,1 hPa 0,0 l/m 0 min 0 min 0 W/m 22,5 km/h (4 Bft) 95,74 %
27.01.2019 01:12 5,9 C 5,6 C 4,4 C 93 % 991,1 hPa 0,0 l/m 0 min 2 min 0 W/m 16,1 km/h (3 Bft) 97,87 %
27.01.2019 01:14 5,9 C 5,0 C 4,4 C 93 % 991,1 hPa 0,0 l/m 0 min 2 min 0 W/m 12,9 km/h (3 Bft) 97,83 %
27.01.2019 01:16 5,9 C 5,0 C 4,4 C 93 % 991,1 hPa 0,0 l/m 0 min 2 min 0 W/m 16,1 km/h (3 Bft) 97,87 %
27.01.2019 01:18 5,9 C 5,0 C 4,4 C 93 % 991,0 hPa 0,0 l/m 0 min 2 min 0 W/m 22,5 km/h (4 Bft) 97,87 %
27.01.2019 01:20 5,9 C 5,0 C 4,4 C 93 % 991,0 hPa 0,0 l/m 0 min 2 min 0 W/m 16,1 km/h (3 Bft) 97,87 %
27.01.2019 01:22 5,9 C 5,0 C 3,9 C 93 % 990,9 hPa 0,0 l/m 0 min 2 min 0 W/m 16,1 km/h (3 Bft) 97,87 %
27.01.2019 01:24 5,9 C 5,0 C 3,9 C 93 % 990,9 hPa 0,0 l/m 0 min 2 min 0 W/m 19,3 km/h (3 Bft) 97,87 %
27.01.2019 01:26 5,9 C 5,0 C 3,9 C 93 % 990,9 hPa 0,0 l/m 0 min 2 min 0 W/m 16,1 km/h (3 Bft) 95,65 %
27.01.2019 01:28 5,9 C 5,0 C 3,9 C 93 % 990,9 hPa 0,2 l/m 0 min 2 min 0 W/m 12,9 km/h (3 Bft) 95,74 %
27.01.2019 01:30 5,9 C 5,0 C 3,9 C 93 % 990,8 hPa 0,0 l/m 0 min 2 min 0 W/m 12,9 km/h (3 Bft) 97,87 %
27.01.2019 01:32 5,9 C 5,0 C 3,9 C 94 % 990,8 hPa 0,0 l/m 0 min 2 min 0 W/m 19,3 km/h (3 Bft) 95,83 %
27.01.2019 01:34 5,9 C 5,0 C 4,4 C 94 % 990,7 hPa 0,0 l/m 0 min 2 min 0 W/m 16,1 km/h (3 Bft) 97,87 %
27.01.2019 01:36 5,9 C 5,0 C 4,4 C 94 % 990,6 hPa 0,0 l/m 0 min 2 min 0 W/m 19,3 km/h (3 Bft) 95,65 %
27.01.2019 01:38 5,9 C 5,0 C 4,4 C 94 % 990,5 hPa 0,0 l/m 0 min 2 min 0 W/m 12,9 km/h (3 Bft) 95,74 %
27.01.2019 01:40 5,9 C 5,0 C 4,4 C 94 % 990,5 hPa 0,0 l/m 0 min 2 min 0 W/m 16,1 km/h (3 Bft) 97,87 %
27.01.2019 01:42 5,9 C 5,0 C 4,4 C 94 % 990,4 hPa 0,2 l/m 0 min 2 min 0 W/m 22,5 km/h (4 Bft) 95,74 %
27.01.2019 01:44 5,9 C 5,0 C 4,4 C 94 % 990,4 hPa 0,0 l/m 0 min 2 min 0 W/m 12,9 km/h (3 Bft) 95,74 %
27.01.2019 01:46 6,0 C 5,0 C 4,4 C 94 % 990,3 hPa 0,0 l/m 0 min 0 min 0 W/m 19,3 km/h (3 Bft) 93,62 %
27.01.2019 01:48 6,0 C 5,0 C 4,4 C 94 % 990,3 hPa 0,0 l/m 0 min 0 min 0 W/m 16,1 km/h (3 Bft) 95,65 %
27.01.2019 01:50 6,0 C 5,0 C 4,4 C 94 % 990,2 hPa 0,0 l/m 0 min 0 min 0 W/m 16,1 km/h (3 Bft) 95,83 %
27.01.2019 01:52 6,1 C 5,0 C 4,4 C 94 % 990,2 hPa 0,0 l/m 0 min 0 min 0 W/m 22,5 km/h (4 Bft) 93,62 %
27.01.2019 01:54 6,1 C 5,0 C 4,4 C 94 % 990,1 hPa 0,0 l/m 0 min 2 min 0 W/m 22,5 km/h (4 Bft) 95,74 %
27.01.2019 01:56 6,1 C 5,0 C 4,4 C 94 % 990,1 hPa 0,0 l/m 0 min 2 min 0 W/m 25,7 km/h (4 Bft) 95,74 %
27.01.2019 01:58 6,1 C 5,0 C 4,4 C 95 % 990,0 hPa 0,0 l/m 0 min 2 min 0 W/m 22,5 km/h (4 Bft) 97,87 %
27.01.2019 02:00 6,1 C 5,0 C 4,4 C 95 % 990,0 hPa 0,0 l/m 0 min 2 min 0 W/m 19,3 km/h (3 Bft) 95,65 %
27.01.2019 02:02 6,1 C 5,0 C 4,4 C 95 % 990,1 hPa 0,0 l/m 0 min 2 min 0 W/m 29,0 km/h (5 Bft) 95,74 %
27.01.2019 02:04 6,2 C 5,0 C 4,4 C 95 % 990,0 hPa 0,0 l/m 0 min 2 min 0 W/m 25,7 km/h (4 Bft) 97,87 %
27.01.2019 02:06 6,2 C 5,0 C 4,4 C 95 % 990,0 hPa 0,0 l/m 0 min 2 min 0 W/m 19,3 km/h (3 Bft) 97,87 %
27.01.2019 02:08 6,2 C 5,0 C 4,4 C 95 % 989,9 hPa 0,0 l/m 0 min 2 min 0 W/m 25,7 km/h (4 Bft) 97,87 %
27.01.2019 02:10 6,2 C 5,0 C 4,4 C 95 % 989,9 hPa 0,0 l/m 0 min 2 min 0 W/m 16,1 km/h (3 Bft) 97,83 %
27.01.2019 02:12 6,2 C 5,0 C 4,4 C 95 % 989,9 hPa 0,0 l/m 0 min 2 min 0 W/m 32,2 km/h (5 Bft) 97,87 %
27.01.2019 02:14 6,3 C 5,0 C 4,4 C 95 % 989,8 hPa 0,0 l/m 0 min 2 min 0 W/m 16,1 km/h (3 Bft) 97,87 %
27.01.2019 02:16 6,3 C 5,0 C 4,4 C 95 % 989,8 hPa 0,2 l/m 0 min 2 min 0 W/m 16,1 km/h (3 Bft) 97,87 %
27.01.2019 02:18 6,3 C 5,0 C 4,4 C 95 % 989,8 hPa 0,0 l/m 0 min 2 min 0 W/m 19,3 km/h (3 Bft) 97,87 %
27.01.2019 02:20 6,3 C 5,0 C 4,4 C 95 % 989,7 hPa 0,0 l/m 0 min 2 min 0 W/m 16,1 km/h (3 Bft) 97,87 %
27.01.2019 02:22 6,3 C 5,0 C 4,4 C 95 % 989,7 hPa 0,2 l/m 0 min 2 min 0 W/m 16,1 km/h (3 Bft) 97,83 %
27.01.2019 02:24 6,3 C 5,0 C 4,4 C 95 % 989,6 hPa 0,0 l/m 0 min 2 min 0 W/m 16,1 km/h (3 Bft) 95,74 %
27.01.2019 02:26 6,3 C 5,0 C 4,4 C 95 % 989,5 hPa 0,0 l/m 0 min 2 min 0 W/m 22,5 km/h (4 Bft) 93,62 %
27.01.2019 02:28 6,3 C 5,0 C 4,4 C 95 % 989,5 hPa 0,0 l/m 0 min 2 min 0 W/m 22,5 km/h (4 Bft) 97,87 %
27.01.2019 02:30 6,3 C 5,0 C 4,4 C 95 % 989,4 hPa 0,0 l/m 0 min 2 min 0 W/m 16,1 km/h (3 Bft) 97,87 %
27.01.2019 02:32 6,3 C 5,0 C 4,4 C 95 % 989,4 hPa 0,0 l/m 0 min 2 min 0 W/m 16,1 km/h (3 Bft) 100,00 %
27.01.2019 02:34 6,3 C 5,0 C 4,4 C 95 % 989,3 hPa 0,0 l/m 0 min 2 min 0 W/m 16,1 km/h (3 Bft) 100,00 %
27.01.2019 02:36 6,3 C 5,0 C 4,4 C 95 % 989,2 hPa 0,2 l/m 0 min 2 min 0 W/m 29,0 km/h (5 Bft) 100,00 %
27.01.2019 02:38 6,3 C 5,0 C 4,4 C 95 % 989,1 hPa 0,0 l/m 0 min 2 min 0 W/m 22,5 km/h (4 Bft) 100,00 %
27.01.2019 02:40 6,3 C 5,0 C 4,4 C 95 % 989,0 hPa 0,0 l/m 0 min 2 min 0 W/m 19,3 km/h (3 Bft) 100,00 %
27.01.2019 02:42 6,3 C 5,0 C 4,4 C 95 % 989,1 hPa 0,0 l/m 0 min 2 min 0 W/m 12,9 km/h (3 Bft) 97,87 %
27.01.2019 02:44 6,3 C 5,0 C 4,4 C 95 % 989,0 hPa 0,0 l/m 0 min 2 min 0 W/m 12,9 km/h (3 Bft) 100,00 %
27.01.2019 02:46 6,3 C 5,0 C 4,4 C 95 % 989,1 hPa 0,0 l/m 0 min 2 min 0 W/m 19,3 km/h (3 Bft) 100,00 %
27.01.2019 02:48 6,2 C 5,0 C 4,4 C 96 % 989,0 hPa 0,0 l/m 0 min 0 min 0 W/m 22,5 km/h (4 Bft) 100,00 %
27.01.2019 02:50 6,2 C 5,0 C 4,4 C 96 % 988,9 hPa 0,0 l/m 0 min 0 min 0 W/m 12,9 km/h (3 Bft) 100,00 %
27.01.2019 02:52 6,2 C 5,0 C 4,4 C 96 % 988,8 hPa 0,0 l/m 0 min 2 min 0 W/m 29,0 km/h (5 Bft) 100,00 %
27.01.2019 02:54 6,2 C 5,0 C 4,4 C 95 % 988,8 hPa 0,0 l/m 0 min 2 min 0 W/m 22,5 km/h (4 Bft) 100,00 %
27.01.2019 02:56 6,2 C 5,0 C 4,4 C 95 % 988,9 hPa 0,0 l/m 0 min 2 min 0 W/m 25,7 km/h (4 Bft) 100,00 %
27.01.2019 02:58 6,2 C 5,0 C 4,4 C 95 % 988,8 hPa 0,0 l/m 0 min 2 min 0 W/m 19,3 km/h (3 Bft) 100,00 %
27.01.2019 03:00 6,2 C 5,0 C 4,4 C 96 % 988,8 hPa 0,0 l/m 0 min 2 min 0 W/m 12,9 km/h (3 Bft) 100,00 %
27.01.2019 03:02 6,2 C 5,0 C 4,4 C 96 % 988,7 hPa 0,0 l/m 0 min 2 min 0 W/m 22,5 km/h (4 Bft) 97,87 %
27.01.2019 03:04 6,2 C 5,0 C 4,4 C 96 % 988,7 hPa 0,0 l/m 0 min 2 min 0 W/m 22,5 km/h (4 Bft) 97,87 %
27.01.2019 03:06 6,2 C 5,0 C 4,4 C 96 % 988,6 hPa 0,0 l/m 0 min 2 min 0 W/m 22,5 km/h (4 Bft) 98,31 %
27.01.2019 03:08 6,2 C 5,0 C 4,4 C 96 % 988,6 hPa 0,0 l/m 0 min 0 min 0 W/m 22,5 km/h (4 Bft) 97,14 %
27.01.2019 03:10 6,2 C 5,0 C 4,4 C 96 % 988,6 hPa 0,0 l/m 0 min 2 min 0 W/m 25,7 km/h (4 Bft) 97,87 %
27.01.2019 03:12 6,2 C 5,0 C 4,4 C 96 % 988,6 hPa 0,0 l/m 0 min 2 min 0 W/m 22,5 km/h (4 Bft) 97,87 %
27.01.2019 03:14 6,2 C 5,0 C 4,4 C 96 % 988,5 hPa 0,0 l/m 0 min 2 min 0 W/m 19,3 km/h (3 Bft) 95,74 %
27.01.2019 03:16 6,2 C 5,0 C 4,4 C 96 % 988,5 hPa 0,0 l/m 0 min 2 min 0 W/m 19,3 km/h (3 Bft) 97,87 %
27.01.2019 03:18 6,2 C 5,6 C 4,4 C 96 % 988,4 hPa 0,0 l/m 0 min 2 min 0 W/m 19,3 km/h (3 Bft) 97,87 %
27.01.2019 03:20 6,2 C 5,6 C 4,4 C 96 % 988,4 hPa 0,0 l/m 0 min 0 min 0 W/m 22,5 km/h (4 Bft) 97,87 %
27.01.2019 03:22 6,2 C 5,6 C 4,4 C 96 % 988,3 hPa 0,0 l/m 0 min 0 min 0 W/m 25,7 km/h (4 Bft) 97,87 %
27.01.2019 03:24 6,2 C 5,6 C 4,4 C 96 % 988,2 hPa 0,0 l/m 0 min 0 min 0 W/m 16,1 km/h (3 Bft) 97,83 %
27.01.2019 03:26 6,2 C 5,6 C 4,4 C 96 % 988,2 hPa 0,0 l/m 0 min 0 min 0 W/m 19,3 km/h (3 Bft) 97,87 %
27.01.2019 03:28 6,2 C 5,6 C 4,4 C 96 % 988,2 hPa 0,0 l/m 0 min 0 min 0 W/m 16,1 km/h (3 Bft) 95,74 %
27.01.2019 03:30 6,2 C 5,6 C 4,4 C 96 % 988,1 hPa 0,0 l/m 0 min 0 min 0 W/m 16,1 km/h (3 Bft) 95,74 %
27.01.2019 03:32 6,2 C 5,6 C 4,4 C 96 % 988,0 hPa 0,0 l/m 0 min 0 min 0 W/m 19,3 km/h (3 Bft) 97,87 %
27.01.2019 03:34 6,2 C 5,6 C 4,4 C 96 % 988,0 hPa 0,0 l/m 0 min 2 min 0 W/m 16,1 km/h (3 Bft) 97,83 %
27.01.2019 03:36 6,2 C 5,6 C 4,4 C 96 % 988,0 hPa 0,0 l/m 0 min 0 min 0 W/m 12,9 km/h (3 Bft) 98,31 %
27.01.2019 03:38 6,2 C 5,6 C 4,4 C 96 % 988,0 hPa 0,0 l/m 0 min 0 min 0 W/m 22,5 km/h (4 Bft) 97,14 %
27.01.2019 03:40 6,2 C 5,6 C 4,4 C 96 % 987,9 hPa 0,0 l/m 0 min 0 min 0 W/m 25,7 km/h (4 Bft) 97,87 %
27.01.2019 03:42 6,2 C 5,6 C 4,4 C 96 % 987,9 hPa 0,0 l/m 0 min 0 min 0 W/m 19,3 km/h (3 Bft) 97,87 %
27.01.2019 03:44 6,2 C 5,0 C 4,4 C 96 % 987,9 hPa 0,0 l/m 0 min 0 min 0 W/m 12,9 km/h (3 Bft) 97,87 %
27.01.2019 03:46 6,2 C 5,6 C 4,4 C 95 % 987,8 hPa 0,0 l/m 0 min 0 min 0 W/m 12,9 km/h (3 Bft) 97,87 %
27.01.2019 03:48 6,2 C 5,6 C 4,4 C 95 % 987,8 hPa 0,0 l/m 0 min 0 min 0 W/m 19,3 km/h (3 Bft) 100,00 %
27.01.2019 03:50 6,2 C 5,6 C 4,4 C 95 % 987,7 hPa 0,0 l/m 0 min 0 min 0 W/m 16,1 km/h (3 Bft) 100,00 %
27.01.2019 03:52 6,2 C 5,6 C 4,4 C 95 % 987,6 hPa 0,0 l/m 0 min 0 min 0 W/m 22,5 km/h (4 Bft) 100,00 %
27.01.2019 03:54 6,2 C 5,6 C 4,4 C 95 % 987,6 hPa 0,0 l/m 0 min 0 min 0 W/m 12,9 km/h (3 Bft) 97,87 %
27.01.2019 03:56 6,2 C 5,6 C 4,4 C 95 % 987,7 hPa 0,0 l/m 0 min 0 min 0 W/m 19,3 km/h (3 Bft) 100,00 %
27.01.2019 03:58 6,2 C 5,6 C 4,4 C 95 % 987,6 hPa 0,0 l/m 0 min 0 min 0 W/m 16,1 km/h (3 Bft) 100,00 %
27.01.2019 04:00 6,2 C 5,6 C 4,4 C 95 % 987,5 hPa 0,0 l/m 0 min 0 min 0 W/m 19,3 km/h (3 Bft) 97,87 %
27.01.2019 04:05 6,2 C 5,0 C 4,4 C 95 % 987,3 hPa 0,0 l/m 0 min 0 min 0 W/m 22,5 km/h (4 Bft) 100,00 %
27.01.2019 04:06 6,2 C 5,0 C 4,4 C 95 % 987,4 hPa 0,0 l/m 0 min 0 min 0 W/m 16,1 km/h (3 Bft) 95,65 %
27.01.2019 04:08 6,2 C 5,0 C 4,4 C 95 % 987,4 hPa 0,0 l/m 0 min 0 min 0 W/m 29,0 km/h (5 Bft) 100,00 %
27.01.2019 04:10 6,2 C 5,0 C 4,4 C 95 % 987,3 hPa 0,0 l/m 0 min 0 min 0 W/m 22,5 km/h (4 Bft) 100,00 %
27.01.2019 04:12 6,2 C 5,0 C 4,4 C 95 % 987,4 hPa 0,0 l/m 0 min 0 min 0 W/m 25,7 km/h (4 Bft) 100,00 %
27.01.2019 04:14 6,2 C 5,0 C 4,4 C 95 % 987,4 hPa 0,0 l/m 0 min 0 min 0 W/m 25,7 km/h (4 Bft) 100,00 %
27.01.2019 04:16 6,2 C 5,0 C 4,4 C 95 % 987,3 hPa 0,0 l/m 0 min 0 min 0 W/m 16,1 km/h (3 Bft) 95,74 %
27.01.2019 04:18 6,2 C 5,0 C 4,4 C 95 % 987,2 hPa 0,0 l/m 0 min 0 min 0 W/m 16,1 km/h (3 Bft) 97,87 %
27.01.2019 04:20 6,2 C 5,0 C 4,4 C 95 % 987,2 hPa 0,0 l/m 0 min 0 min 0 W/m 32,2 km/h (5 Bft) 97,87 %
27.01.2019 04:22 6,2 C 5,6 C 4,4 C 95 % 987,1 hPa 0,0 l/m 0 min 0 min 0 W/m 19,3 km/h (3 Bft) 97,83 %
27.01.2019 04:24 6,2 C 5,6 C 4,4 C 95 % 987,1 hPa 0,0 l/m 0 min 0 min 0 W/m 16,1 km/h (3 Bft) 91,49 %
27.01.2019 04:26 6,2 C 5,6 C 4,4 C 95 % 987,1 hPa 0,0 l/m 0 min 0 min 0 W/m 22,5 km/h (4 Bft) 93,62 %
27.01.2019 04:28 6,3 C 5,6 C 4,4 C 95 % 987,0 hPa 0,0 l/m 0 min 0 min 0 W/m 19,3 km/h (3 Bft) 97,87 %
27.01.2019 04:30 6,2 C 5,6 C 4,4 C 95 % 987,0 hPa 0,0 l/m 0 min 0 min 0 W/m 22,5 km/h (4 Bft) 97,87 %
27.01.2019 04:32 6,3 C 5,6 C 4,4 C 95 % 987,0 hPa 0,0 l/m 0 min 0 min 0 W/m 22,5 km/h (4 Bft) 97,87 %
27.01.2019 04:34 6,3 C 5,6 C 4,4 C 95 % 986,9 hPa 0,0 l/m 0 min 0 min 0 W/m 19,3 km/h (3 Bft) 95,65 %
27.01.2019 04:36 6,3 C 5,6 C 4,4 C 95 % 986,9 hPa 0,0 l/m 0 min 0 min 0 W/m 16,1 km/h (3 Bft) 95,74 %
27.01.2019 04:38 6,3 C 5,6 C 4,4 C 95 % 986,9 hPa 0,0 l/m 0 min 0 min 0 W/m 19,3 km/h (3 Bft) 97,87 %
27.01.2019 04:40 6,3 C 5,6 C 4,4 C 95 % 986,8 hPa 0,0 l/m 0 min 0 min 0 W/m 19,3 km/h (3 Bft) 97,87 %
27.01.2019 04:42 6,3 C 5,6 C 4,4 C 95 % 986,8 hPa 0,0 l/m 0 min 0 min 0 W/m 16,1 km/h (3 Bft) 95,74 %
27.01.2019 04:44 6,3 C 5,6 C 4,4 C 95 % 986,7 hPa 0,0 l/m 0 min 0 min 0 W/m 29,0 km/h (5 Bft) 93,48 %
27.01.2019 04:46 6,3 C 5,6 C 4,4 C 95 % 986,7 hPa 0,0 l/m 0 min 0 min 0 W/m 22,5 km/h (4 Bft) 93,62 %
27.01.2019 04:48 6,3 C 5,6 C 5,0 C 95 % 986,7 hPa 0,0 l/m 0 min 0 min 0 W/m 22,5 km/h (4 Bft) 97,87 %
27.01.2019 04:50 6,3 C 5,6 C 5,0 C 95 % 986,6 hPa 0,0 l/m 0 min 0 min 0 W/m 19,3 km/h (3 Bft) 95,74 %
27.01.2019 04:52 6,3 C 5,6 C 5,0 C 95 % 986,6 hPa 0,0 l/m 0 min 0 min 0 W/m 22,5 km/h (4 Bft) 95,74 %
27.01.2019 04:54 6,3 C 5,6 C 5,0 C 95 % 986,5 hPa 0,0 l/m 0 min 0 min 0 W/m 25,7 km/h (4 Bft) 95,74 %
27.01.2019 04:56 6,3 C 5,6 C 5,0 C 95 % 986,5 hPa 0,0 l/m 0 min 0 min 0 W/m 22,5 km/h (4 Bft) 95,65 %
27.01.2019 04:58 6,3 C 5,6 C 5,0 C 95 % 986,4 hPa 0,0 l/m 0 min 0 min 0 W/m 19,3 km/h (3 Bft) 95,74 %
27.01.2019 05:00 6,3 C 5,6 C 5,0 C 95 % 986,4 hPa 0,0 l/m 0 min 0 min 0 W/m 12,9 km/h (3 Bft) 95,74 %
27.01.2019 05:02 6,3 C 5,6 C 5,0 C 95 % 986,3 hPa 0,0 l/m 0 min 0 min 0 W/m 16,1 km/h (3 Bft) 95,74 %
27.01.2019 05:04 6,4 C 5,6 C 5,0 C 95 % 986,3 hPa 0,0 l/m 0 min 0 min 0 W/m 16,1 km/h (3 Bft) 93,62 %
27.01.2019 05:05 6,4 C 5,6 C 5,0 C 95 % 986,2 hPa 0,0 l/m 0 min 0 min 0 W/m 19,3 km/h (3 Bft) 99,12 %
27.01.2019 05:12 6,4 C 5,6 C 5,0 C 95 % 986,2 hPa 0,0 l/m 0 min 0 min 0 W/m 22,5 km/h (4 Bft) 92,00 %
27.01.2019 05:14 6,4 C 5,6 C 5,0 C 94 % 986,1 hPa 0,0 l/m 0 min 0 min 0 W/m 16,1 km/h (3 Bft) 100,00 %
27.01.2019 05:16 6,4 C 5,6 C 5,0 C 94 % 986,1 hPa 0,0 l/m 0 min 0 min 0 W/m 19,3 km/h (3 Bft) 100,00 %
27.01.2019 05:18 6,4 C 5,6 C 5,0 C 94 % 986,0 hPa 0,0 l/m 0 min 0 min 0 W/m 12,9 km/h (3 Bft) 93,62 %
27.01.2019 05:20 6,4 C 5,6 C 5,0 C 94 % 986,0 hPa 0,0 l/m 0 min 0 min 0 W/m 19,3 km/h (3 Bft) 100,00 %
27.01.2019 05:22 6,4 C 5,6 C 5,0 C 94 % 986,0 hPa 0,0 l/m 0 min 0 min 0 W/m 22,5 km/h (4 Bft) 95,74 %
27.01.2019 05:24 6,4 C 5,6 C 5,0 C 94 % 986,0 hPa 0,0 l/m 0 min 0 min 0 W/m 12,9 km/h (3 Bft) 97,87 %
27.01.2019 05:26 6,4 C 5,6 C 5,0 C 94 % 986,0 hPa 0,0 l/m 0 min 0 min 0 W/m 16,1 km/h (3 Bft) 97,87 %
27.01.2019 05:28 6,4 C 5,6 C 5,0 C 94 % 985,9 hPa 0,0 l/m 0 min 0 min 0 W/m 29,0 km/h (5 Bft) 97,83 %
27.01.2019 05:30 6,4 C 5,6 C 5,0 C 94 % 985,9 hPa 0,0 l/m 0 min 0 min 0 W/m 19,3 km/h (3 Bft) 100,00 %
27.01.2019 05:32 6,4 C 5,6 C 5,0 C 94 % 985,8 hPa 0,0 l/m 0 min 0 min 0 W/m 16,1 km/h (3 Bft) 100,00 %
27.01.2019 05:34 6,4 C 5,6 C 5,0 C 94 % 985,8 hPa 0,0 l/m 0 min 0 min 0 W/m 16,1 km/h (3 Bft) 95,74 %
27.01.2019 05:36 6,4 C 5,6 C 5,0 C 94 % 985,7 hPa 0,0 l/m 0 min 0 min 0 W/m 16,1 km/h (3 Bft) 97,87 %
27.01.2019 05:38 6,4 C 5,6 C 5,0 C 94 % 985,8 hPa 0,0 l/m 0 min 0 min 0 W/m 16,1 km/h (3 Bft) 96,08 %
27.01.2019 05:40 6,4 C 5,6 C 5,0 C 94 % 985,7 hPa 0,0 l/m 0 min 0 min 0 W/m 19,3 km/h (3 Bft) 97,37 %
27.01.2019 05:42 6,4 C 5,6 C 5,0 C 94 % 985,7 hPa 0,0 l/m 0 min 0 min 0 W/m 19,3 km/h (3 Bft) 97,83 %
27.01.2019 05:44 6,4 C 5,6 C 5,0 C 94 % 985,7 hPa 0,0 l/m 0 min 0 min 0 W/m 16,1 km/h (3 Bft) 97,87 %
27.01.2019 05:46 6,4 C 5,6 C 5,0 C 94 % 985,7 hPa 0,0 l/m 0 min 0 min 0 W/m 19,3 km/h (3 Bft) 97,87 %
27.01.2019 05:48 6,4 C 5,6 C 5,0 C 94 % 985,6 hPa 0,0 l/m 0 min 0 min 0 W/m 16,1 km/h (3 Bft) 95,74 %
27.01.2019 05:50 6,5 C 5,6 C 5,0 C 93 % 985,6 hPa 0,0 l/m 0 min 0 min 0 W/m 22,5 km/h (4 Bft) 97,87 %
27.01.2019 05:52 6,4 C 5,6 C 5,0 C 94 % 985,5 hPa 0,0 l/m 0 min 0 min 0 W/m 12,9 km/h (3 Bft) 97,87 %
27.01.2019 05:54 6,5 C 5,6 C 5,0 C 93 % 985,5 hPa 0,0 l/m 0 min 0 min 0 W/m 19,3 km/h (3 Bft) 97,83 %
27.01.2019 05:56 6,5 C 5,6 C 5,0 C 94 % 985,5 hPa 0,0 l/m 0 min 0 min 0 W/m 22,5 km/h (4 Bft) 95,74 %
27.01.2019 05:58 6,5 C 5,6 C 5,0 C 94 % 985,5 hPa 0,0 l/m 0 min 0 min 0 W/m 22,5 km/h (4 Bft) 97,87 %
27.01.2019 06:00 6,4 C 5,6 C 5,0 C 93 % 985,5 hPa 0,0 l/m 0 min 0 min 0 W/m 29,0 km/h (5 Bft) 97,87 %
27.01.2019 06:02 6,4 C 5,6 C 5,0 C 93 % 985,5 hPa 0,0 l/m 0 min 0 min 0 W/m 22,5 km/h (4 Bft) 97,87 %
27.01.2019 06:04 6,4 C 5,6 C 5,0 C 93 % 985,4 hPa 0,0 l/m 0 min 0 min 0 W/m 25,7 km/h (4 Bft) 97,87 %
27.01.2019 06:08 6,4 C 5,6 C 5,0 C 93 % 985,4 hPa 0,0 l/m 0 min 0 min 0 W/m 25,7 km/h (4 Bft) 96,77 %
27.01.2019 06:10 6,4 C 5,6 C 4,4 C 93 % 985,3 hPa 0,0 l/m 0 min 0 min 0 W/m 12,9 km/h (3 Bft) 97,87 %
27.01.2019 06:12 6,4 C 5,6 C 4,4 C 93 % 985,3 hPa 0,0 l/m 0 min 0 min 0 W/m 12,9 km/h (3 Bft) 97,87 %
27.01.2019 06:14 6,4 C 6,1 C 5,0 C 94 % 985,2 hPa 0,0 l/m 0 min 0 min 0 W/m 16,1 km/h (3 Bft) 97,87 %
27.01.2019 06:16 6,4 C 6,1 C 5,0 C 94 % 985,3 hPa 0,0 l/m 0 min 0 min 0 W/m 19,3 km/h (3 Bft) 100,00 %
27.01.2019 06:18 6,4 C 6,1 C 5,0 C 94 % 985,2 hPa 0,0 l/m 0 min 0 min 0 W/m 16,1 km/h (3 Bft) 100,00 %
27.01.2019 06:20 6,4 C 6,1 C 5,0 C 93 % 985,2 hPa 0,0 l/m 0 min 0 min 0 W/m 19,3 km/h (3 Bft) 100,00 %
27.01.2019 06:22 6,4 C 6,1 C 5,0 C 93 % 985,2 hPa 0,0 l/m 0 min 0 min 0 W/m 12,9 km/h (3 Bft) 100,00 %
27.01.2019 06:24 6,4 C 6,1 C 5,0 C 93 % 985,2 hPa 0,0 l/m 0 min 0 min 0 W/m 12,9 km/h (3 Bft) 97,87 %
27.01.2019 06:26 6,4 C 6,1 C 5,0 C 93 % 985,2 hPa 0,0 l/m 0 min 0 min 0 W/m 16,1 km/h (3 Bft) 97,87 %
27.01.2019 06:28 6,4 C 6,1 C 5,0 C 93 % 985,2 hPa 0,0 l/m 0 min 0 min 0 W/m 16,1 km/h (3 Bft) 97,87 %
27.01.2019 06:30 6,4 C 6,1 C 5,0 C 93 % 985,2 hPa 0,0 l/m 0 min 0 min 0 W/m 12,9 km/h (3 Bft) 100,00 %
27.01.2019 06:32 6,4 C 6,1 C 5,0 C 93 % 985,0 hPa 0,0 l/m 0 min 0 min 0 W/m 9,7 km/h (2 Bft) 100,00 %
27.01.2019 06:34 6,4 C 6,1 C 5,0 C 93 % 985,0 hPa 0,0 l/m 0 min 0 min 0 W/m 12,9 km/h (3 Bft) 100,00 %
27.01.2019 06:36 6,4 C 6,1 C 5,0 C 93 % 985,0 hPa 0,0 l/m 0 min 0 min 0 W/m 16,1 km/h (3 Bft) 100,00 %
27.01.2019 06:38 6,4 C 6,1 C 5,0 C 93 % 984,9 hPa 0,0 l/m 0 min 0 min 0 W/m 16,1 km/h (3 Bft) 100,00 %
27.01.2019 06:40 6,4 C 6,1 C 5,0 C 93 % 984,9 hPa 0,0 l/m 0 min 0 min 0 W/m 16,1 km/h (3 Bft) 100,00 %
27.01.2019 06:42 6,4 C 6,1 C 4,4 C 93 % 984,9 hPa 0,0 l/m 0 min 0 min 0 W/m 16,1 km/h (3 Bft) 100,00 %
27.01.2019 06:44 6,4 C 6,1 C 4,4 C 93 % 984,9 hPa 0,0 l/m 0 min 0 min 0 W/m 9,7 km/h (2 Bft) 100,00 %
27.01.2019 06:46 6,4 C 5,6 C 4,4 C 93 % 984,8 hPa 0,0 l/m 0 min 0 min 0 W/m 16,1 km/h (3 Bft) 100,00 %
27.01.2019 06:48 6,4 C 5,6 C 4,4 C 93 % 984,8 hPa 0,0 l/m 0 min 0 min 0 W/m 9,7 km/h (2 Bft) 100,00 %
27.01.2019 06:50 6,3 C 5,6 C 4,4 C 93 % 984,8 hPa 0,0 l/m 0 min 0 min 0 W/m 12,9 km/h (3 Bft) 100,00 %
27.01.2019 06:52 6,3 C 5,6 C 4,4 C 93 % 984,8 hPa 0,0 l/m 0 min 0 min 0 W/m 16,1 km/h (3 Bft) 100,00 %
27.01.2019 06:54 6,3 C 5,6 C 4,4 C 93 % 984,8 hPa 0,0 l/m 0 min 0 min 0 W/m 25,7 km/h (4 Bft) 100,00 %
27.01.2019 06:56 6,3 C 5,6 C 4,4 C 93 % 984,8 hPa 0,0 l/m 0 min 0 min 0 W/m 25,7 km/h (4 Bft) 100,00 %
27.01.2019 06:58 6,3 C 5,6 C 4,4 C 93 % 984,8 hPa 0,0 l/m 0 min 0 min 0 W/m 19,3 km/h (3 Bft) 100,00 %
27.01.2019 07:00 6,3 C 5,6 C 4,4 C 93 % 984,8 hPa 0,0 l/m 0 min 0 min 0 W/m 12,9 km/h (3 Bft) 100,00 %
27.01.2019 07:02 6,3 C 5,6 C 4,4 C 93 % 984,8 hPa 0,0 l/m 0 min 0 min 0 W/m 19,3 km/h (3 Bft) 100,00 %
27.01.2019 07:04 6,3 C 5,6 C 4,4 C 93 % 984,7 hPa 0,0 l/m 0 min 0 min 0 W/m 9,7 km/h (2 Bft) 100,00 %
27.01.2019 07:06 6,3 C 5,6 C 4,4 C 93 % 984,8 hPa 0,0 l/m 0 min 0 min 0 W/m 19,3 km/h (3 Bft) 100,00 %
27.01.2019 07:08 6,3 C 5,6 C 4,4 C 93 % 984,7 hPa 0,0 l/m 0 min 0 min 0 W/m 9,7 km/h (2 Bft) 100,00 %
27.01.2019 07:10 6,3 C 5,6 C 4,4 C 93 % 984,7 hPa 0,0 l/m 0 min 0 min 0 W/m 22,5 km/h (4 Bft) 100,00 %
27.01.2019 07:12 6,3 C 5,6 C 4,4 C 93 % 984,6 hPa 0,0 l/m 0 min 0 min 0 W/m 12,9 km/h (3 Bft) 100,00 %
27.01.2019 07:14 6,3 C 5,6 C 4,4 C 93 % 984,6 hPa 0,0 l/m 0 min 0 min 0 W/m 12,9 km/h (3 Bft) 100,00 %
27.01.2019 07:16 6,3 C 5,6 C 4,4 C 93 % 984,5 hPa 0,0 l/m 0 min 0 min 0 W/m 25,7 km/h (4 Bft) 100,00 %
27.01.2019 07:18 6,3 C 5,6 C 4,4 C 93 % 984,6 hPa 0,0 l/m 0 min 0 min 0 W/m 22,5 km/h (4 Bft) 97,87 %
27.01.2019 07:20 6,3 C 6,1 C 4,4 C 93 % 984,6 hPa 0,0 l/m 0 min 0 min 0 W/m 19,3 km/h (3 Bft) 97,87 %
27.01.2019 07:22 6,3 C 6,1 C 4,4 C 93 % 984,4 hPa 0,0 l/m 0 min 0 min 0 W/m 19,3 km/h (3 Bft) 97,87 %
27.01.2019 07:24 6,3 C 6,1 C 4,4 C 93 % 984,4 hPa 0,0 l/m 0 min 0 min 0 W/m 16,1 km/h (3 Bft) 100,00 %
27.01.2019 07:26 6,3 C 6,1 C 4,4 C 93 % 984,4 hPa 0,0 l/m 0 min 0 min 0 W/m 19,3 km/h (3 Bft) 100,00 %
27.01.2019 07:28 6,3 C 6,1 C 4,4 C 93 % 984,4 hPa 0,0 l/m 0 min 0 min 0 W/m 22,5 km/h (4 Bft) 100,00 %
27.01.2019 07:30 6,3 C 6,1 C 5,0 C 93 % 984,4 hPa 0,0 l/m 0 min 0 min 0 W/m 29,0 km/h (5 Bft) 93,62 %
27.01.2019 07:32 6,3 C 6,1 C 4,4 C 93 % 984,3 hPa 0,0 l/m 0 min 0 min 0 W/m 12,9 km/h (3 Bft) 97,87 %
27.01.2019 07:34 6,3 C 6,1 C 4,4 C 93 % 984,3 hPa 0,0 l/m 0 min 0 min 0 W/m 22,5 km/h (4 Bft) 97,87 %
27.01.2019 07:36 6,3 C 6,1 C 4,4 C 93 % 984,2 hPa 0,0 l/m 0 min 0 min 0 W/m 16,1 km/h (3 Bft) 94,83 %
27.01.2019 07:38 6,3 C 6,1 C 4,4 C 93 % 984,1 hPa 0,0 l/m 0 min 0 min 0 W/m 16,1 km/h (3 Bft) 95,74 %
27.01.2019 07:40 6,3 C 6,1 C 4,4 C 93 % 984,2 hPa 0,0 l/m 0 min 0 min 0 W/m 19,3 km/h (3 Bft) 97,14 %
27.01.2019 07:42 6,3 C 6,1 C 4,4 C 93 % 984,2 hPa 0,0 l/m 0 min 0 min 0 W/m 12,9 km/h (3 Bft) 93,62 %
27.01.2019 07:44 6,3 C 6,1 C 4,4 C 93 % 984,1 hPa 0,0 l/m 0 min 0 min 0 W/m 12,9 km/h (3 Bft) 93,62 %
27.01.2019 07:46 6,3 C 6,1 C 4,4 C 93 % 984,1 hPa 0,0 l/m 0 min 0 min 0 W/m 16,1 km/h (3 Bft) 95,74 %
27.01.2019 07:48 6,3 C 6,1 C 4,4 C 93 % 984,1 hPa 0,0 l/m 0 min 0 min 0 W/m 16,1 km/h (3 Bft) 95,74 %
27.01.2019 07:50 6,3 C 6,1 C 4,4 C 93 % 984,1 hPa 0,0 l/m 0 min 0 min 0 W/m 16,1 km/h (3 Bft) 95,74 %
27.01.2019 07:52 6,3 C 5,6 C 4,4 C 93 % 984,2 hPa 0,0 l/m 0 min 0 min 0 W/m 12,9 km/h (3 Bft) 95,65 %
27.01.2019 07:54 6,3 C 6,1 C 4,4 C 93 % 984,2 hPa 0,0 l/m 0 min 0 min 0 W/m 16,1 km/h (3 Bft) 95,74 %
27.01.2019 07:56 6,3 C 6,1 C 4,4 C 93 % 984,1 hPa 0,0 l/m 0 min 0 min 0 W/m 19,3 km/h (3 Bft) 95,74 %
27.01.2019 07:58 6,3 C 6,1 C 4,4 C 93 % 984,1 hPa 0,0 l/m 0 min 0 min 0 W/m 22,5 km/h (4 Bft) 95,74 %
27.01.2019 08:00 6,3 C 6,1 C 4,4 C 93 % 984,1 hPa 0,0 l/m 0 min 0 min 0 W/m 12,9 km/h (3 Bft) 95,74 %
27.01.2019 08:02 6,3 C 6,1 C 4,4 C 93 % 984,1 hPa 0,0 l/m 0 min 0 min 0 W/m 12,9 km/h (3 Bft) 91,49 %
27.01.2019 08:04 6,3 C 6,1 C 4,4 C 92 % 984,0 hPa 0,0 l/m 0 min 0 min 0 W/m 16,1 km/h (3 Bft) 93,62 %
27.01.2019 08:06 6,3 C 6,1 C 4,4 C 92 % 984,0 hPa 0,0 l/m 0 min 0 min 0 W/m 22,5 km/h (4 Bft) 94,92 %
27.01.2019 08:08 6,3 C 6,1 C 4,4 C 92 % 983,9 hPa 0,0 l/m 0 min 0 min 0 W/m 19,3 km/h (3 Bft) 91,43 %
27.01.2019 08:10 6,3 C 6,1 C 4,4 C 92 % 983,9 hPa 0,0 l/m 0 min 0 min 0 W/m 16,1 km/h (3 Bft) 91,49 %
27.01.2019 08:12 6,3 C 6,1 C 4,4 C 92 % 983,9 hPa 0,0 l/m 0 min 0 min 0 W/m 12,9 km/h (3 Bft) 93,62 %
27.01.2019 08:14 6,3 C 6,1 C 4,4 C 92 % 984,0 hPa 0,0 l/m 0 min 0 min 0 W/m 22,5 km/h (4 Bft) 95,65 %
27.01.2019 08:16 6,3 C 6,1 C 4,4 C 92 % 984,0 hPa 0,0 l/m 0 min 0 min 0 W/m 16,1 km/h (3 Bft) 93,62 %
27.01.2019 08:18 6,3 C 6,1 C 4,4 C 92 % 984,0 hPa 0,0 l/m 0 min 0 min 0 W/m 22,5 km/h (4 Bft) 93,62 %
27.01.2019 08:20 6,3 C 6,1 C 4,4 C 92 % 984,0 hPa 0,0 l/m 0 min 0 min 0 W/m 19,3 km/h (3 Bft) 93,62 %
27.01.2019 08:22 6,3 C 6,1 C 4,4 C 92 % 983,9 hPa 0,0 l/m 0 min 0 min 0 W/m 16,1 km/h (3 Bft) 91,49 %
27.01.2019 08:24 6,3 C 5,6 C 4,4 C 92 % 983,9 hPa 0,0 l/m 0 min 0 min 0 W/m 12,9 km/h (3 Bft) 91,30 %
27.01.2019 08:26 6,3 C 5,6 C 4,4 C 92 % 983,9 hPa 0,0 l/m 0 min 0 min 0 W/m 19,3 km/h (3 Bft) 95,74 %
27.01.2019 08:28 6,3 C 5,6 C 4,4 C 92 % 983,9 hPa 0,0 l/m 0 min 0 min 2 W/m 12,9 km/h (3 Bft) 95,74 %
27.01.2019 08:30 6,3 C 5,6 C 4,4 C 92 % 983,8 hPa 0,0 l/m 0 min 0 min 5 W/m 19,3 km/h (3 Bft) 93,62 %
27.01.2019 08:32 6,3 C 5,6 C 4,4 C 92 % 983,8 hPa 0,0 l/m 0 min 0 min 5 W/m 16,1 km/h (3 Bft) 93,75 %
27.01.2019 08:34 6,3 C 5,6 C 4,4 C 92 % 983,8 hPa 0,0 l/m 0 min 0 min 7 W/m 12,9 km/h (3 Bft) 95,74 %
27.01.2019 08:36 6,3 C 5,6 C 4,4 C 92 % 983,8 hPa 0,0 l/m 0 min 0 min 9 W/m 16,1 km/h (3 Bft) 96,55 %
27.01.2019 08:38 6,3 C 5,6 C 4,4 C 92 % 983,7 hPa 0,0 l/m 0 min 0 min 10 W/m 25,7 km/h (4 Bft) 100,00 %
27.01.2019 08:40 6,3 C 5,6 C 4,4 C 91 % 983,8 hPa 0,0 l/m 0 min 0 min 12 W/m 16,1 km/h (3 Bft) 95,74 %
27.01.2019 08:42 6,3 C 5,6 C 4,4 C 91 % 983,7 hPa 0,0 l/m 0 min 0 min 13 W/m 19,3 km/h (3 Bft) 91,49 %
27.01.2019 08:44 6,2 C 5,6 C 4,4 C 91 % 983,7 hPa 0,0 l/m 0 min 0 min 14 W/m 22,5 km/h (4 Bft) 97,87 %
27.01.2019 08:46 6,2 C 5,6 C 4,4 C 92 % 983,8 hPa 0,0 l/m 0 min 0 min 14 W/m 22,5 km/h (4 Bft) 97,87 %
27.01.2019 08:48 6,2 C 5,6 C 4,4 C 92 % 983,8 hPa 0,0 l/m 0 min 0 min 12 W/m 16,1 km/h (3 Bft) 100,00 %
27.01.2019 08:50 6,3 C 5,6 C 4,4 C 92 % 983,8 hPa 0,0 l/m 0 min 0 min 14 W/m 22,5 km/h (4 Bft) 100,00 %
27.01.2019 08:52 6,2 C 5,6 C 4,4 C 92 % 983,8 hPa 0,0 l/m 0 min 0 min 16 W/m 19,3 km/h (3 Bft) 97,87 %
27.01.2019 08:54 6,3 C 5,6 C 4,4 C 92 % 983,8 hPa 0,0 l/m 0 min 0 min 16 W/m 16,1 km/h (3 Bft) 100,00 %
27.01.2019 08:56 6,3 C 5,6 C 4,4 C 92 % 983,8 hPa 0,0 l/m 0 min 0 min 17 W/m 12,9 km/h (3 Bft) 100,00 %
27.01.2019 08:58 6,3 C 5,6 C 4,4 C 92 % 983,8 hPa 0,0 l/m 0 min 0 min 18 W/m 16,1 km/h (3 Bft) 100,00 %
27.01.2019 09:00 6,3 C 5,6 C 4,4 C 92 % 983,7 hPa 0,0 l/m 0 min 0 min 19 W/m 19,3 km/h (3 Bft) 97,83 %
27.01.2019 09:02 6,3 C 5,6 C 4,4 C 92 % 983,7 hPa 0,0 l/m 0 min 0 min 21 W/m 16,1 km/h (3 Bft) 100,00 %
27.01.2019 09:04 6,2 C 6,1 C 4,4 C 92 % 983,6 hPa 0,0 l/m 0 min 0 min 23 W/m 25,7 km/h (4 Bft) 100,00 %
27.01.2019 09:06 6,2 C 6,1 C 4,4 C 92 % 983,6 hPa 0,0 l/m 0 min 0 min 22 W/m 25,7 km/h (4 Bft) 100,00 %
27.01.2019 09:08 6,2 C 6,1 C 4,4 C 92 % 983,6 hPa 0,0 l/m 0 min 0 min 21 W/m 12,9 km/h (3 Bft) 100,00 %
27.01.2019 09:10 6,2 C 6,1 C 4,4 C 92 % 983,6 hPa 0,0 l/m 0 min 0 min 21 W/m 16,1 km/h (3 Bft) 100,00 %
27.01.2019 09:12 6,2 C 6,1 C 4,4 C 92 % 983,6 hPa 0,0 l/m 0 min 0 min 21 W/m 19,3 km/h (3 Bft) 100,00 %
27.01.2019 09:14 6,3 C 6,1 C 5,0 C 92 % 983,6 hPa 0,0 l/m 0 min 0 min 26 W/m 16,1 km/h (3 Bft) 100,00 %
27.01.2019 09:16 6,2 C 6,1 C 5,0 C 92 % 983,6 hPa 0,0 l/m 0 min 0 min 27 W/m 16,1 km/h (3 Bft) 100,00 %
27.01.2019 09:18 6,3 C 6,1 C 5,0 C 92 % 983,6 hPa 0,0 l/m 0 min 0 min 28 W/m 25,7 km/h (4 Bft) 100,00 %
27.01.2019 09:20 6,3 C 6,1 C 5,0 C 92 % 983,6 hPa 0,0 l/m 0 min 0 min 25 W/m 19,3 km/h (3 Bft) 97,87 %
27.01.2019 09:22 6,3 C 6,1 C 5,0 C 92 % 983,5 hPa 0,0 l/m 0 min 0 min 27 W/m 22,5 km/h (4 Bft) 100,00 %
27.01.2019 09:24 6,3 C 6,1 C 5,0 C 92 % 983,5 hPa 0,0 l/m 0 min 0 min 27 W/m 19,3 km/h (3 Bft) 97,87 %
27.01.2019 09:26 6,3 C 6,1 C 5,0 C 92 % 983,5 hPa 0,0 l/m 0 min 0 min 24 W/m 12,9 km/h (3 Bft) 100,00 %
27.01.2019 09:28 6,3 C 6,1 C 5,0 C 92 % 983,6 hPa 0,0 l/m 0 min 2 min 24 W/m 16,1 km/h (3 Bft) 100,00 %
27.01.2019 09:30 6,3 C 6,1 C 5,0 C 92 % 983,6 hPa 0,0 l/m 0 min 0 min 31 W/m 16,1 km/h (3 Bft) 100,00 %
27.01.2019 09:32 6,3 C 6,1 C 5,0 C 92 % 983,5 hPa 0,0 l/m 0 min 0 min 32 W/m 29,0 km/h (5 Bft) 100,00 %
27.01.2019 09:34 6,4 C 6,1 C 5,0 C 92 % 983,6 hPa 0,0 l/m 0 min 0 min 33 W/m 19,3 km/h (3 Bft) 100,00 %
27.01.2019 09:36 6,4 C 6,1 C 5,0 C 92 % 983,5 hPa 0,0 l/m 0 min 0 min 33 W/m 25,7 km/h (4 Bft) 100,00 %
27.01.2019 09:38 6,4 C 6,1 C 5,0 C 92 % 983,5 hPa 0,0 l/m 0 min 0 min 35 W/m 16,1 km/h (3 Bft) 100,00 %
27.01.2019 09:40 6,4 C 6,1 C 5,0 C 92 % 983,5 hPa 0,0 l/m 0 min 0 min 34 W/m 35,4 km/h (5 Bft) 100,00 %
27.01.2019 09:42 6,4 C 6,1 C 5,0 C 92 % 983,5 hPa 0,0 l/m 0 min 0 min 33 W/m 22,5 km/h (4 Bft) 100,00 %
27.01.2019 09:44 6,4 C 6,1 C 5,0 C 92 % 983,4 hPa 0,0 l/m 0 min 0 min 32 W/m 25,7 km/h (4 Bft) 100,00 %
27.01.2019 09:46 6,4 C 6,1 C 5,0 C 92 % 983,4 hPa 0,0 l/m 0 min 0 min 36 W/m 32,2 km/h (5 Bft) 100,00 %
27.01.2019 09:48 6,4 C 6,1 C 5,0 C 92 % 983,4 hPa 0,0 l/m 0 min 0 min 39 W/m 22,5 km/h (4 Bft) 100,00 %
27.01.2019 09:50 6,4 C 6,1 C 5,0 C 92 % 983,4 hPa 0,0 l/m 0 min 0 min 43 W/m 22,5 km/h (4 Bft) 100,00 %
27.01.2019 09:52 6,4 C 6,1 C 5,0 C 92 % 983,4 hPa 0,0 l/m 0 min 0 min 48 W/m 22,5 km/h (4 Bft) 100,00 %
27.01.2019 09:54 6,5 C 6,7 C 5,0 C 91 % 983,3 hPa 0,0 l/m 0 min 0 min 46 W/m 25,7 km/h (4 Bft) 100,00 %
27.01.2019 09:56 6,5 C 6,7 C 5,0 C 91 % 983,4 hPa 0,0 l/m 0 min 0 min 44 W/m 29,0 km/h (5 Bft) 97,87 %
27.01.2019 09:58 6,5 C 6,7 C 5,0 C 91 % 983,4 hPa 0,0 l/m 0 min 0 min 42 W/m 16,1 km/h (3 Bft) 100,00 %
27.01.2019 10:00 6,6 C 6,7 C 5,0 C 91 % 983,3 hPa 0,0 l/m 0 min 2 min 39 W/m 16,1 km/h (3 Bft) 97,87 %
27.01.2019 10:02 6,6 C 6,7 C 5,0 C 91 % 983,3 hPa 0,0 l/m 0 min 0 min 36 W/m 19,3 km/h (3 Bft) 97,92 %
27.01.2019 10:04 6,6 C 6,7 C 5,0 C 91 % 983,3 hPa 0,0 l/m 0 min 0 min 40 W/m 22,5 km/h (4 Bft) 100,00 %
27.01.2019 10:06 6,6 C 6,7 C 5,0 C 91 % 983,3 hPa 0,0 l/m 0 min 2 min 46 W/m 16,1 km/h (3 Bft) 100,00 %
27.01.2019 10:08 6,6 C 6,7 C 5,0 C 91 % 983,4 hPa 0,0 l/m 0 min 0 min 49 W/m 16,1 km/h (3 Bft) 100,00 %
27.01.2019 10:10 6,7 C 6,7 C 5,6 C 91 % 983,3 hPa 0,0 l/m 0 min 0 min 52 W/m 12,9 km/h (3 Bft) 100,00 %
27.01.2019 10:12 6,7 C 6,7 C 5,6 C 91 % 983,3 hPa 0,0 l/m 0 min 0 min 53 W/m 29,0 km/h (5 Bft) 100,00 %
27.01.2019 10:14 6,7 C 6,7 C 5,6 C 91 % 983,2 hPa 0,0 l/m 0 min 0 min 54 W/m 29,0 km/h (5 Bft) 100,00 %
27.01.2019 10:16 6,7 C 6,7 C 5,6 C 91 % 983,3 hPa 0,0 l/m 0 min 0 min 54 W/m 25,7 km/h (4 Bft) 100,00 %
27.01.2019 10:18 6,7 C 6,7 C 5,6 C 91 % 983,2 hPa 0,0 l/m 0 min 0 min 61 W/m 35,4 km/h (5 Bft) 100,00 %
27.01.2019 10:20 6,8 C 6,7 C 5,6 C 90 % 983,3 hPa 0,0 l/m 0 min 0 min 64 W/m 22,5 km/h (4 Bft) 97,87 %
27.01.2019 10:22 6,8 C 6,7 C 5,6 C 90 % 983,2 hPa 0,0 l/m 0 min 0 min 72 W/m 22,5 km/h (4 Bft) 100,00 %
27.01.2019 10:24 6,8 C 7,2 C 5,6 C 90 % 983,2 hPa 0,0 l/m 0 min 0 min 61 W/m 16,1 km/h (3 Bft) 97,87 %
27.01.2019 10:26 6,8 C 6,7 C 5,6 C 90 % 983,2 hPa 0,0 l/m 0 min 2 min 54 W/m 25,7 km/h (4 Bft) 97,87 %
27.01.2019 10:28 6,9 C 6,7 C 6,1 C 90 % 983,2 hPa 0,0 l/m 0 min 0 min 52 W/m 22,5 km/h (4 Bft) 100,00 %
27.01.2019 10:30 6,9 C 6,7 C 6,1 C 90 % 983,2 hPa 0,0 l/m 0 min 0 min 49 W/m 22,5 km/h (4 Bft) 100,00 %
27.01.2019 10:32 6,9 C 6,7 C 6,1 C 90 % 983,2 hPa 0,0 l/m 0 min 2 min 44 W/m 35,4 km/h (5 Bft) 100,00 %
27.01.2019 10:34 6,9 C 6,7 C 6,1 C 90 % 983,2 hPa 0,0 l/m 0 min 2 min 46 W/m 25,7 km/h (4 Bft) 95,65 %
27.01.2019 10:36 7,0 C 6,7 C 6,1 C 89 % 983,1 hPa 0,0 l/m 0 min 2 min 44 W/m 29,0 km/h (5 Bft) 95,74 %
27.01.2019 10:38 7,0 C 6,1 C 5,6 C 89 % 983,2 hPa 0,0 l/m 0 min 2 min 42 W/m 25,7 km/h (4 Bft) 97,87 %
27.01.2019 10:40 7,0 C 6,1 C 5,6 C 89 % 983,2 hPa 0,0 l/m 0 min 2 min 40 W/m 25,7 km/h (4 Bft) 95,74 %
27.01.2019 10:42 7,0 C 6,1 C 5,6 C 89 % 983,2 hPa 0,0 l/m 0 min 0 min 40 W/m 22,5 km/h (4 Bft) 93,62 %
27.01.2019 10:44 7,1 C 6,1 C 5,6 C 89 % 983,1 hPa 0,0 l/m 0 min 2 min 40 W/m 32,2 km/h (5 Bft) 91,30 %
27.01.2019 10:46 7,1 C 6,1 C 5,6 C 89 % 983,1 hPa 0,0 l/m 0 min 2 min 42 W/m 32,2 km/h (5 Bft) 93,62 %
27.01.2019 10:48 7,0 C 6,1 C 5,6 C 89 % 983,1 hPa 0,0 l/m 0 min 2 min 42 W/m 29,0 km/h (5 Bft) 91,49 %
27.01.2019 10:50 7,0 C 6,1 C 5,0 C 89 % 983,1 hPa 0,0 l/m 0 min 2 min 45 W/m 25,7 km/h (4 Bft) 93,62 %
27.01.2019 10:52 7,0 C 5,6 C 5,0 C 89 % 983,1 hPa 0,0 l/m 0 min 2 min 46 W/m 25,7 km/h (4 Bft) 93,62 %
27.01.2019 10:54 7,0 C 5,6 C 5,0 C 89 % 983,2 hPa 0,0 l/m 0 min 2 min 50 W/m 25,7 km/h (4 Bft) 89,36 %
27.01.2019 10:56 7,0 C 5,6 C 5,0 C 90 % 983,1 hPa 0,2 l/m 0 min 2 min 42 W/m 25,7 km/h (4 Bft) 93,48 %
27.01.2019 10:58 6,9 C 5,6 C 5,0 C 90 % 983,2 hPa 0,0 l/m 0 min 2 min 37 W/m 22,5 km/h (4 Bft) 91,49 %
27.01.2019 11:00 6,9 C 5,6 C 5,0 C 90 % 983,2 hPa 0,0 l/m 0 min 2 min 39 W/m 22,5 km/h (4 Bft) 93,62 %
27.01.2019 11:02 6,9 C 5,6 C 5,0 C 90 % 983,2 hPa 0,0 l/m 0 min 2 min 43 W/m 25,7 km/h (4 Bft) 93,62 %
27.01.2019 11:04 6,9 C 5,6 C 5,0 C 91 % 983,1 hPa 0,0 l/m 0 min 2 min 42 W/m 29,0 km/h (5 Bft) 93,62 %
27.01.2019 11:06 6,9 C 5,6 C 5,0 C 91 % 983,2 hPa 0,0 l/m 0 min 2 min 45 W/m 32,2 km/h (5 Bft) 91,49 %
27.01.2019 11:08 6,8 C 5,6 C 5,0 C 91 % 983,3 hPa 0,0 l/m 0 min 2 min 51 W/m 25,7 km/h (4 Bft) 93,48 %
27.01.2019 11:10 6,8 C 5,6 C 5,0 C 91 % 983,2 hPa 0,0 l/m 0 min 2 min 55 W/m 22,5 km/h (4 Bft) 93,62 %
27.01.2019 11:12 6,8 C 5,6 C 5,0 C 91 % 983,3 hPa 0,0 l/m 0 min 2 min 53 W/m 29,0 km/h (5 Bft) 89,36 %
27.01.2019 11:14 6,8 C 5,6 C 5,0 C 91 % 983,3 hPa 0,0 l/m 0 min 2 min 55 W/m 25,7 km/h (4 Bft) 93,62 %
27.01.2019 11:16 6,8 C 5,6 C 5,0 C 92 % 983,2 hPa 0,0 l/m 0 min 2 min 56 W/m 22,5 km/h (4 Bft) 91,49 %
27.01.2019 11:18 6,7 C 5,6 C 5,0 C 92 % 983,2 hPa 0,0 l/m 0 min 2 min 55 W/m 19,3 km/h (3 Bft) 95,65 %
27.01.2019 11:20 6,7 C 5,6 C 5,0 C 92 % 983,1 hPa 0,0 l/m 0 min 2 min 61 W/m 32,2 km/h (5 Bft) 95,74 %
27.01.2019 11:22 6,7 C 5,6 C 5,0 C 92 % 983,1 hPa 0,0 l/m 0 min 2 min 71 W/m 29,0 km/h (5 Bft) 95,74 %
27.01.2019 11:24 6,7 C 5,6 C 5,0 C 92 % 983,1 hPa 0,0 l/m 0 min 2 min 73 W/m 25,7 km/h (4 Bft) 93,62 %
27.01.2019 11:26 6,7 C 5,6 C 5,0 C 92 % 983,1 hPa 0,0 l/m 0 min 2 min 74 W/m 19,3 km/h (3 Bft) 95,74 %
27.01.2019 11:28 6,7 C 5,6 C 5,0 C 92 % 983,2 hPa 0,2 l/m 0 min 2 min 66 W/m 29,0 km/h (5 Bft) 95,74 %
27.01.2019 11:30 6,7 C 5,0 C 4,4 C 92 % 983,0 hPa 0,0 l/m 0 min 2 min 44 W/m 51,5 km/h (7 Bft) 93,62 %
27.01.2019 11:32 6,6 C 5,0 C 4,4 C 93 % 983,1 hPa 0,0 l/m 0 min 2 min 34 W/m 25,7 km/h (4 Bft) 97,87 %
27.01.2019 11:34 6,6 C 5,0 C 4,4 C 93 % 982,9 hPa 0,0 l/m 0 min 2 min 44 W/m 25,7 km/h (4 Bft) 100,00 %
27.01.2019 11:36 6,6 C 5,0 C 4,4 C 92 % 982,9 hPa 0,0 l/m 0 min 2 min 50 W/m 16,1 km/h (3 Bft) 97,87 %
27.01.2019 11:38 6,6 C 5,0 C 4,4 C 93 % 983,0 hPa 0,0 l/m 0 min 2 min 56 W/m 29,0 km/h (5 Bft) 95,74 %
27.01.2019 11:40 6,6 C 5,6 C 5,0 C 93 % 983,0 hPa 0,0 l/m 0 min 2 min 65 W/m 16,1 km/h (3 Bft) 100,00 %
27.01.2019 11:42 6,6 C 5,6 C 5,0 C 93 % 982,9 hPa 0,2 l/m 0 min 2 min 79 W/m 25,7 km/h (4 Bft) 97,83 %
27.01.2019 11:44 6,6 C 5,6 C 5,0 C 93 % 982,9 hPa 0,0 l/m 0 min 2 min 83 W/m 32,2 km/h (5 Bft) 100,00 %
27.01.2019 11:46 6,6 C 5,6 C 5,0 C 93 % 982,8 hPa 0,0 l/m 0 min 2 min 89 W/m 32,2 km/h (5 Bft) 97,87 %
27.01.2019 11:48 6,6 C 5,6 C 5,0 C 93 % 982,8 hPa 0,0 l/m 0 min 2 min 70 W/m 25,7 km/h (4 Bft) 100,00 %
27.01.2019 11:50 6,6 C 5,6 C 5,0 C 93 % 982,8 hPa 0,0 l/m 0 min 2 min 71 W/m 25,7 km/h (4 Bft) 97,87 %
27.01.2019 11:52 6,6 C 5,6 C 5,0 C 93 % 982,9 hPa 0,0 l/m 0 min 2 min 69 W/m 25,7 km/h (4 Bft) 100,00 %
27.01.2019 11:54 6,6 C 5,6 C 5,0 C 93 % 982,8 hPa 0,0 l/m 0 min 2 min 58 W/m 22,5 km/h (4 Bft) 97,83 %
27.01.2019 11:56 6,6 C 5,6 C 5,0 C 93 % 982,8 hPa 0,0 l/m 0 min 2 min 66 W/m 35,4 km/h (5 Bft) 100,00 %
27.01.2019 11:58 6,6 C 5,0 C 5,0 C 93 % 982,8 hPa 0,0 l/m 0 min 2 min 56 W/m 32,2 km/h (5 Bft) 93,62 %
27.01.2019 12:00 6,6 C 5,0 C 4,4 C 93 % 982,8 hPa 0,0 l/m 0 min 2 min 46 W/m 22,5 km/h (4 Bft) 97,87 %
27.01.2019 12:02 6,6 C 5,0 C 4,4 C 93 % 982,8 hPa 0,0 l/m 0 min 2 min 44 W/m 16,1 km/h (3 Bft) 100,00 %
27.01.2019 12:04 6,6 C 5,0 C 4,4 C 93 % 982,8 hPa 0,0 l/m 0 min 2 min 41 W/m 19,3 km/h (3 Bft) 100,00 %
27.01.2019 12:08 6,5 C 5,0 C 5,0 C 93 % 982,8 hPa 0,0 l/m 0 min 4 min 55 W/m 19,3 km/h (3 Bft) 98,92 %
27.01.2019 12:10 6,5 C 5,6 C 5,0 C 93 % 982,8 hPa 0,0 l/m 0 min 2 min 80 W/m 32,2 km/h (5 Bft) 97,87 %
27.01.2019 12:12 6,5 C 5,6 C 5,0 C 93 % 982,8 hPa 0,0 l/m 0 min 2 min 99 W/m 29,0 km/h (5 Bft) 97,87 %
27.01.2019 12:14 6,5 C 5,0 C 5,0 C 93 % 982,8 hPa 0,0 l/m 0 min 2 min 85 W/m 41,8 km/h (6 Bft) 100,00 %
27.01.2019 12:16 6,5 C 5,6 C 5,0 C 93 % 982,7 hPa 0,0 l/m 0 min 2 min 85 W/m 32,2 km/h (5 Bft) 95,74 %
27.01.2019 12:18 6,5 C 5,6 C 5,0 C 93 % 982,7 hPa 0,0 l/m 0 min 2 min 86 W/m 19,3 km/h (3 Bft) 100,00 %
27.01.2019 12:20 6,5 C 5,6 C 5,0 C 93 % 982,7 hPa 0,0 l/m 0 min 2 min 79 W/m 29,0 km/h (5 Bft) 100,00 %
27.01.2019 12:22 6,5 C 5,6 C 5,0 C 93 % 982,7 hPa 0,0 l/m 0 min 2 min 88 W/m 29,0 km/h (5 Bft) 100,00 %
27.01.2019 12:24 6,5 C 5,6 C 5,0 C 93 % 982,7 hPa 0,0 l/m 0 min 2 min 72 W/m 16,1 km/h (3 Bft) 100,00 %
27.01.2019 12:26 6,5 C 5,0 C 5,0 C 93 % 982,6 hPa 0,0 l/m 0 min 2 min 59 W/m 22,5 km/h (4 Bft) 97,87 %
27.01.2019 12:28 6,5 C 5,0 C 4,4 C 93 % 982,6 hPa 0,0 l/m 0 min 2 min 49 W/m 32,2 km/h (5 Bft) 100,00 %
27.01.2019 12:30 6,4 C 5,0 C 4,4 C 93 % 982,6 hPa 0,0 l/m 0 min 2 min 46 W/m 35,4 km/h (5 Bft) 100,00 %
27.01.2019 12:32 6,4 C 5,0 C 4,4 C 93 % 982,6 hPa 0,0 l/m 0 min 2 min 43 W/m 19,3 km/h (3 Bft) 100,00 %
27.01.2019 12:34 6,4 C 5,0 C 4,4 C 93 % 982,7 hPa 0,0 l/m 0 min 2 min 40 W/m 25,7 km/h (4 Bft) 100,00 %
27.01.2019 12:36 6,4 C 5,0 C 4,4 C 93 % 982,6 hPa 0,0 l/m 0 min 2 min 33 W/m 16,1 km/h (3 Bft) 100,00 %
27.01.2019 12:38 6,4 C 5,0 C 4,4 C 93 % 982,6 hPa 0,0 l/m 0 min 2 min 31 W/m 22,5 km/h (4 Bft) 100,00 %
27.01.2019 12:40 6,4 C 5,0 C 4,4 C 93 % 982,5 hPa 0,0 l/m 0 min 2 min 28 W/m 19,3 km/h (3 Bft) 100,00 %
27.01.2019 12:42 6,4 C 5,0 C 4,4 C 93 % 982,5 hPa 0,0 l/m 0 min 2 min 33 W/m 29,0 km/h (5 Bft) 100,00 %
27.01.2019 12:44 6,3 C 5,0 C 4,4 C 93 % 982,5 hPa 0,0 l/m 0 min 2 min 34 W/m 16,1 km/h (3 Bft) 100,00 %
27.01.2019 12:46 6,3 C 5,0 C 4,4 C 93 % 982,5 hPa 0,2 l/m 0 min 2 min 33 W/m 19,3 km/h (3 Bft) 100,00 %
27.01.2019 12:48 6,3 C 5,0 C 4,4 C 93 % 982,4 hPa 0,0 l/m 0 min 2 min 34 W/m 32,2 km/h (5 Bft) 100,00 %
27.01.2019 12:50 6,2 C 5,0 C 4,4 C 93 % 982,4 hPa 0,0 l/m 0 min 2 min 40 W/m 19,3 km/h (3 Bft) 100,00 %
27.01.2019 12:52 6,3 C 5,0 C 4,4 C 93 % 982,4 hPa 0,0 l/m 0 min 2 min 49 W/m 22,5 km/h (4 Bft) 100,00 %
27.01.2019 12:54 6,2 C 5,0 C 4,4 C 93 % 982,4 hPa 0,0 l/m 0 min 2 min 56 W/m 32,2 km/h (5 Bft) 100,00 %
27.01.2019 12:56 6,2 C 5,0 C 4,4 C 93 % 982,4 hPa 0,0 l/m 0 min 2 min 51 W/m 32,2 km/h (5 Bft) 100,00 %
27.01.2019 12:58 6,2 C 5,0 C 4,4 C 94 % 982,3 hPa 0,0 l/m 0 min 2 min 50 W/m 22,5 km/h (4 Bft) 100,00 %
27.01.2019 13:00 6,2 C 5,0 C 4,4 C 94 % 982,4 hPa 0,0 l/m 0 min 2 min 38 W/m 29,0 km/h (5 Bft) 100,00 %
27.01.2019 13:02 6,2 C 5,0 C 4,4 C 94 % 982,3 hPa 0,0 l/m 0 min 2 min 37 W/m 25,7 km/h (4 Bft) 100,00 %
27.01.2019 13:04 6,2 C 5,0 C 4,4 C 94 % 982,4 hPa 0,0 l/m 0 min 2 min 35 W/m 22,5 km/h (4 Bft) 97,83 %
27.01.2019 13:06 6,2 C 5,0 C 4,4 C 94 % 982,3 hPa 0,0 l/m 0 min 2 min 35 W/m 12,9 km/h (3 Bft) 97,87 %
27.01.2019 13:08 6,2 C 5,0 C 4,4 C 94 % 982,2 hPa 0,0 l/m 0 min 2 min 38 W/m 25,7 km/h (4 Bft) 97,87 %
27.01.2019 13:10 6,2 C 5,0 C 4,4 C 94 % 982,2 hPa 0,0 l/m 0 min 0 min 49 W/m 19,3 km/h (3 Bft) 97,87 %
27.01.2019 13:12 6,1 C 5,0 C 4,4 C 94 % 982,3 hPa 0,0 l/m 0 min 0 min 67 W/m 19,3 km/h (3 Bft) 97,87 %
27.01.2019 13:14 6,2 C 5,0 C 4,4 C 94 % 982,2 hPa 0,0 l/m 0 min 2 min 70 W/m 22,5 km/h (4 Bft) 97,83 %
27.01.2019 13:16 6,2 C 5,6 C 4,4 C 94 % 982,2 hPa 0,0 l/m 0 min 0 min 94 W/m 22,5 km/h (4 Bft) 95,74 %
27.01.2019 13:18 6,2 C 5,6 C 5,0 C 94 % 982,2 hPa 0,0 l/m 0 min 2 min 136 W/m 25,7 km/h (4 Bft) 97,87 %
27.01.2019 13:20 6,2 C 5,6 C 5,0 C 94 % 982,2 hPa 0,0 l/m 0 min 2 min 118 W/m 16,1 km/h (3 Bft) 95,74 %
27.01.2019 13:22 6,2 C 5,6 C 5,0 C 94 % 982,2 hPa 0,0 l/m 0 min 0 min 100 W/m 19,3 km/h (3 Bft) 98,00 %
27.01.2019 13:24 6,2 C 5,6 C 5,0 C 94 % 982,2 hPa 0,0 l/m 0 min 0 min 88 W/m 22,5 km/h (4 Bft) 97,87 %
27.01.2019 13:26 6,2 C 5,6 C 5,0 C 95 % 982,1 hPa 0,0 l/m 0 min 2 min 106 W/m 22,5 km/h (4 Bft) 97,83 %
27.01.2019 13:28 6,3 C 5,6 C 5,0 C 95 % 982,1 hPa 0,0 l/m 0 min 2 min 121 W/m 25,7 km/h (4 Bft) 93,62 %
27.01.2019 13:30 6,3 C 5,6 C 5,0 C 95 % 982,1 hPa 0,0 l/m 0 min 2 min 120 W/m 22,5 km/h (4 Bft) 95,74 %
27.01.2019 13:32 6,3 C 5,6 C 5,0 C 95 % 982,1 hPa 0,0 l/m 0 min 2 min 127 W/m 16,1 km/h (3 Bft) 95,74 %
27.01.2019 13:34 6,4 C 5,6 C 5,0 C 95 % 982,1 hPa 0,0 l/m 0 min 0 min 132 W/m 25,7 km/h (4 Bft) 95,74 %
27.01.2019 13:36 6,4 C 6,1 C 5,0 C 95 % 982,1 hPa 0,0 l/m 0 min 0 min 145 W/m 19,3 km/h (3 Bft) 97,87 %
27.01.2019 13:38 6,4 C 6,1 C 5,6 C 95 % 982,0 hPa 0,0 l/m 0 min 0 min 146 W/m 22,5 km/h (4 Bft) 95,65 %
27.01.2019 13:40 6,4 C 6,1 C 5,6 C 95 % 982,1 hPa 0,0 l/m 0 min 0 min 145 W/m 16,1 km/h (3 Bft) 97,87 %
27.01.2019 13:42 6,5 C 6,7 C 5,6 C 95 % 982,1 hPa 0,0 l/m 2 min 2 min 221 W/m 19,3 km/h (3 Bft) 95,74 %
27.01.2019 13:44 6,6 C 7,2 C 5,6 C 95 % 982,1 hPa 0,0 l/m 2 min 0 min 267 W/m 19,3 km/h (3 Bft) 97,87 %
27.01.2019 13:46 6,6 C 6,7 C 5,6 C 95 % 982,1 hPa 0,0 l/m 2 min 0 min 225 W/m 25,7 km/h (4 Bft) 97,87 %
27.01.2019 13:48 6,7 C 6,7 C 5,6 C 95 % 982,1 hPa 0,0 l/m 2 min 0 min 202 W/m 25,7 km/h (4 Bft) 93,62 %
27.01.2019 13:50 6,7 C 6,7 C 5,6 C 95 % 982,1 hPa 0,0 l/m 0 min 0 min 154 W/m 12,9 km/h (3 Bft) 95,65 %
27.01.2019 13:52 6,7 C 6,7 C 5,6 C 95 % 982,1 hPa 0,0 l/m 0 min 0 min 144 W/m 12,9 km/h (3 Bft) 97,87 %
27.01.2019 13:54 6,8 C 6,7 C 5,6 C 95 % 982,1 hPa 0,0 l/m 0 min 0 min 131 W/m 12,9 km/h (3 Bft) 93,62 %
27.01.2019 13:56 6,8 C 6,7 C 5,6 C 95 % 982,2 hPa 0,0 l/m 0 min 0 min 115 W/m 12,9 km/h (3 Bft) 93,62 %
27.01.2019 13:58 6,8 C 6,1 C 5,6 C 95 % 982,1 hPa 0,0 l/m 0 min 0 min 96 W/m 16,1 km/h (3 Bft) 93,62 %
27.01.2019 14:00 6,8 C 6,1 C 5,6 C 95 % 982,1 hPa 0,0 l/m 0 min 2 min 99 W/m 29,0 km/h (5 Bft) 95,74 %
27.01.2019 14:02 6,8 C 6,1 C 5,6 C 95 % 982,1 hPa 0,0 l/m 0 min 2 min 115 W/m 22,5 km/h (4 Bft) 93,48 %
27.01.2019 14:04 6,8 C 6,1 C 5,6 C 95 % 982,1 hPa 0,0 l/m 0 min 2 min 138 W/m 16,1 km/h (3 Bft) 95,74 %
27.01.2019 14:06 6,8 C 6,1 C 5,6 C 95 % 982,1 hPa 0,0 l/m 0 min 2 min 144 W/m 19,3 km/h (3 Bft) 95,74 %
27.01.2019 14:08 6,8 C 6,1 C 5,6 C 95 % 982,2 hPa 0,0 l/m 0 min 2 min 126 W/m 19,3 km/h (3 Bft) 95,74 %
27.01.2019 14:10 6,8 C 6,1 C 5,6 C 95 % 982,1 hPa 0,0 l/m 0 min 2 min 120 W/m 19,3 km/h (3 Bft) 93,62 %
27.01.2019 14:12 6,8 C 6,1 C 5,6 C 95 % 982,1 hPa 0,0 l/m 0 min 2 min 101 W/m 9,7 km/h (2 Bft) 95,65 %
27.01.2019 14:14 6,8 C 6,1 C 5,6 C 95 % 982,1 hPa 0,0 l/m 0 min 2 min 88 W/m 22,5 km/h (4 Bft) 95,74 %
27.01.2019 14:16 6,8 C 6,1 C 5,6 C 95 % 982,1 hPa 0,0 l/m 0 min 2 min 81 W/m 22,5 km/h (4 Bft) 95,74 %
27.01.2019 14:18 6,8 C 5,6 C 5,6 C 95 % 982,1 hPa 0,0 l/m 0 min 2 min 77 W/m 16,1 km/h (3 Bft) 93,62 %
27.01.2019 14:20 6,8 C 6,1 C 5,6 C 95 % 982,1 hPa 0,0 l/m 0 min 2 min 72 W/m 16,1 km/h (3 Bft) 95,74 %
27.01.2019 14:22 6,8 C 5,6 C 5,6 C 95 % 982,1 hPa 0,0 l/m 0 min 2 min 72 W/m 22,5 km/h (4 Bft) 95,83 %
27.01.2019 14:24 6,8 C 5,6 C 5,0 C 95 % 982,1 hPa 0,0 l/m 0 min 2 min 70 W/m 22,5 km/h (4 Bft) 97,83 %
27.01.2019 14:26 6,8 C 5,6 C 5,6 C 95 % 982,2 hPa 0,0 l/m 0 min 2 min 69 W/m 16,1 km/h (3 Bft) 95,74 %
27.01.2019 14:28 6,7 C 6,1 C 5,6 C 95 % 982,1 hPa 0,0 l/m 0 min 2 min 78 W/m 19,3 km/h (3 Bft) 93,62 %
27.01.2019 14:30 6,7 C 5,6 C 5,0 C 95 % 982,1 hPa 0,0 l/m 0 min 2 min 78 W/m 22,5 km/h (4 Bft) 95,74 %
27.01.2019 14:32 6,7 C 5,6 C 5,6 C 95 % 982,1 hPa 0,0 l/m 0 min 2 min 77 W/m 29,0 km/h (5 Bft) 100,00 %
27.01.2019 14:34 6,7 C 5,6 C 5,6 C 95 % 982,1 hPa 0,0 l/m 0 min 2 min 76 W/m 25,7 km/h (4 Bft) 95,74 %
27.01.2019 14:36 6,7 C 5,6 C 5,0 C 95 % 982,1 hPa 0,0 l/m 0 min 2 min 63 W/m 16,1 km/h (3 Bft) 91,38 %
27.01.2019 14:38 6,7 C 5,6 C 5,0 C 95 % 982,1 hPa 0,0 l/m 0 min 2 min 62 W/m 19,3 km/h (3 Bft) 97,87 %
27.01.2019 14:40 6,7 C 5,6 C 5,0 C 95 % 982,1 hPa 0,0 l/m 0 min 2 min 61 W/m 19,3 km/h (3 Bft) 94,29 %
27.01.2019 14:42 6,7 C 5,6 C 5,0 C 95 % 982,1 hPa 0,0 l/m 0 min 2 min 56 W/m 22,5 km/h (4 Bft) 95,74 %
27.01.2019 14:44 6,7 C 5,6 C 5,0 C 94 % 982,1 hPa 0,0 l/m 0 min 2 min 60 W/m 22,5 km/h (4 Bft) 97,87 %
27.01.2019 14:46 6,6 C 5,6 C 5,0 C 94 % 982,2 hPa 0,0 l/m 0 min 0 min 66 W/m 22,5 km/h (4 Bft) 97,87 %
27.01.2019 14:48 6,6 C 5,6 C 5,0 C 94 % 982,2 hPa 0,0 l/m 0 min 0 min 54 W/m 12,9 km/h (3 Bft) 97,87 %
27.01.2019 14:50 6,6 C 5,6 C 5,0 C 94 % 982,2 hPa 0,0 l/m 0 min 0 min 38 W/m 12,9 km/h (3 Bft) 95,74 %
27.01.2019 14:52 6,6 C 5,6 C 5,0 C 94 % 982,2 hPa 0,0 l/m 0 min 0 min 36 W/m 22,5 km/h (4 Bft) 100,00 %
27.01.2019 14:54 6,6 C 5,6 C 5,0 C 94 % 982,2 hPa 0,0 l/m 0 min 0 min 38 W/m 9,7 km/h (2 Bft) 97,87 %
27.01.2019 14:56 6,6 C 5,6 C 5,0 C 94 % 982,2 hPa 0,0 l/m 0 min 0 min 37 W/m 9,7 km/h (2 Bft) 100,00 %
27.01.2019 14:58 6,6 C 5,6 C 5,0 C 94 % 982,2 hPa 0,0 l/m 0 min 0 min 36 W/m 22,5 km/h (4 Bft) 100,00 %
27.01.2019 15:00 6,6 C 5,6 C 5,0 C 94 % 982,2 hPa 0,0 l/m 0 min 0 min 30 W/m 12,9 km/h (3 Bft) 97,87 %
27.01.2019 15:02 6,5 C 5,6 C 5,0 C 94 % 982,2 hPa 0,0 l/m 0 min 0 min 34 W/m 16,1 km/h (3 Bft) 100,00 %
27.01.2019 15:04 6,5 C 5,6 C 5,0 C 94 % 982,2 hPa 0,0 l/m 0 min 0 min 42 W/m 16,1 km/h (3 Bft) 100,00 %
27.01.2019 15:06 6,5 C 5,6 C 5,0 C 94 % 982,2 hPa 0,0 l/m 0 min 0 min 32 W/m 19,3 km/h (3 Bft) 100,00 %
27.01.2019 15:08 6,4 C 5,6 C 5,0 C 94 % 982,3 hPa 0,0 l/m 0 min 0 min 28 W/m 16,1 km/h (3 Bft) 100,00 %
27.01.2019 15:10 6,4 C 5,6 C 5,0 C 94 % 982,3 hPa 0,0 l/m 0 min 0 min 26 W/m 19,3 km/h (3 Bft) 100,00 %
27.01.2019 15:12 6,4 C 5,6 C 5,0 C 94 % 982,3 hPa 0,0 l/m 0 min 0 min 26 W/m 12,9 km/h (3 Bft) 100,00 %
27.01.2019 15:14 6,4 C 5,6 C 5,0 C 94 % 982,3 hPa 0,0 l/m 0 min 0 min 29 W/m 12,9 km/h (3 Bft) 100,00 %
27.01.2019 15:16 6,4 C 5,0 C 5,0 C 94 % 982,3 hPa 0,0 l/m 0 min 0 min 24 W/m 12,9 km/h (3 Bft) 100,00 %
27.01.2019 15:18 6,4 C 5,0 C 4,4 C 94 % 982,4 hPa 0,0 l/m 0 min 0 min 20 W/m 12,9 km/h (3 Bft) 100,00 %
27.01.2019 15:20 6,4 C 5,0 C 4,4 C 94 % 982,3 hPa 0,0 l/m 0 min 0 min 18 W/m 19,3 km/h (3 Bft) 100,00 %
27.01.2019 15:22 6,4 C 5,0 C 4,4 C 94 % 982,3 hPa 0,0 l/m 0 min 0 min 20 W/m 9,7 km/h (2 Bft) 100,00 %
27.01.2019 15:24 6,4 C 5,0 C 4,4 C 94 % 982,5 hPa 0,0 l/m 0 min 0 min 20 W/m 16,1 km/h (3 Bft) 100,00 %
27.01.2019 15:26 6,3 C 5,0 C 4,4 C 94 % 982,4 hPa 0,0 l/m 0 min 0 min 20 W/m 16,1 km/h (3 Bft) 100,00 %
27.01.2019 15:28 6,3 C 5,0 C 4,4 C 94 % 982,4 hPa 0,0 l/m 0 min 0 min 18 W/m 12,9 km/h (3 Bft) 93,62 %
27.01.2019 15:30 6,3 C 5,0 C 4,4 C 94 % 982,4 hPa 0,0 l/m 0 min 0 min 14 W/m 12,9 km/h (3 Bft) 100,00 %
27.01.2019 15:32 6,2 C 5,0 C 4,4 C 94 % 982,4 hPa 0,0 l/m 0 min 0 min 12 W/m 12,9 km/h (3 Bft) 100,00 %
27.01.2019 15:34 6,2 C 5,0 C 4,4 C 94 % 982,5 hPa 0,0 l/m 0 min 2 min 12 W/m 19,3 km/h (3 Bft) 97,87 %
27.01.2019 15:36 6,2 C 5,0 C 4,4 C 94 % 982,6 hPa 0,0 l/m 0 min 2 min 14 W/m 16,1 km/h (3 Bft) 94,83 %
27.01.2019 15:38 6,2 C 5,0 C 4,4 C 94 % 982,6 hPa 0,0 l/m 0 min 2 min 23 W/m 16,1 km/h (3 Bft) 97,14 %
27.01.2019 15:40 6,2 C 5,0 C 4,4 C 94 % 982,6 hPa 0,0 l/m 0 min 2 min 42 W/m 12,9 km/h (3 Bft) 97,87 %
27.01.2019 15:42 6,1 C 5,0 C 4,4 C 94 % 982,7 hPa 0,0 l/m 0 min 2 min 50 W/m 19,3 km/h (3 Bft) 97,87 %
27.01.2019 15:44 6,1 C 5,0 C 4,4 C 95 % 982,8 hPa 0,0 l/m 0 min 2 min 42 W/m 12,9 km/h (3 Bft) 93,62 %
27.01.2019 15:46 6,0 C 4,4 C 4,4 C 95 % 982,7 hPa 0,0 l/m 0 min 2 min 37 W/m 16,1 km/h (3 Bft) 95,74 %
27.01.2019 15:48 5,9 C 4,4 C 4,4 C 94 % 982,8 hPa 0,0 l/m 0 min 2 min 39 W/m 16,1 km/h (3 Bft) 95,65 %
27.01.2019 15:50 5,9 C 4,4 C 3,9 C 94 % 982,8 hPa 0,2 l/m 0 min 2 min 43 W/m 25,7 km/h (4 Bft) 97,87 %
27.01.2019 15:52 5,8 C 4,4 C 3,9 C 94 % 982,9 hPa 0,0 l/m 0 min 2 min 32 W/m 29,0 km/h (5 Bft) 97,87 %
27.01.2019 15:54 5,7 C 4,4 C 3,9 C 94 % 983,0 hPa 0,0 l/m 0 min 2 min 24 W/m 29,0 km/h (5 Bft) 97,87 %
27.01.2019 15:56 5,6 C 3,9 C 3,9 C 94 % 983,0 hPa 0,2 l/m 0 min 2 min 17 W/m 29,0 km/h (5 Bft) 95,74 %
27.01.2019 15:58 5,6 C 3,9 C 3,9 C 94 % 983,1 hPa 0,0 l/m 0 min 2 min 12 W/m 25,7 km/h (4 Bft) 97,87 %
27.01.2019 16:00 5,4 C 3,9 C 3,9 C 94 % 983,1 hPa 0,0 l/m 0 min 2 min 10 W/m 19,3 km/h (3 Bft) 97,83 %
27.01.2019 16:02 5,4 C 3,9 C 3,9 C 94 % 983,3 hPa 0,2 l/m 0 min 2 min 9 W/m 32,2 km/h (5 Bft) 97,87 %
27.01.2019 16:04 5,3 C 3,9 C 3,3 C 94 % 983,3 hPa 0,0 l/m 0 min 2 min 9 W/m 32,2 km/h (5 Bft) 97,87 %
27.01.2019 16:06 5,3 C 3,9 C 3,3 C 94 % 983,4 hPa 0,0 l/m 0 min 2 min 10 W/m 29,0 km/h (5 Bft) 98,31 %
27.01.2019 16:08 5,2 C 3,9 C 3,3 C 94 % 983,4 hPa 0,2 l/m 0 min 2 min 11 W/m 22,5 km/h (4 Bft) 97,14 %
27.01.2019 16:10 5,2 C 3,9 C 3,3 C 94 % 983,4 hPa 0,0 l/m 0 min 2 min 10 W/m 22,5 km/h (4 Bft) 95,74 %
27.01.2019 16:12 5,1 C 3,9 C 3,3 C 94 % 983,4 hPa 0,0 l/m 0 min 2 min 9 W/m 22,5 km/h (4 Bft) 93,48 %
27.01.2019 16:14 5,1 C 3,9 C 3,3 C 94 % 983,5 hPa 0,2 l/m 0 min 2 min 9 W/m 32,2 km/h (5 Bft) 97,87 %
27.01.2019 16:16 5,0 C 3,9 C 3,3 C 95 % 983,5 hPa 0,0 l/m 0 min 2 min 8 W/m 16,1 km/h (3 Bft) 100,00 %
27.01.2019 16:18 5,0 C 3,9 C 3,3 C 95 % 983,6 hPa 0,0 l/m 0 min 2 min 7 W/m 19,3 km/h (3 Bft) 100,00 %
27.01.2019 16:20 4,9 C 3,9 C 3,3 C 95 % 983,6 hPa 0,2 l/m 0 min 2 min 10 W/m 19,3 km/h (3 Bft) 100,00 %
27.01.2019 16:22 4,9 C 3,9 C 3,3 C 95 % 983,5 hPa 0,0 l/m 0 min 2 min 12 W/m 25,7 km/h (4 Bft) 97,87 %
27.01.2019 16:24 4,9 C 3,9 C 3,3 C 95 % 983,6 hPa 0,0 l/m 0 min 2 min 12 W/m 22,5 km/h (4 Bft) 100,00 %
27.01.2019 16:26 4,9 C 3,9 C 3,3 C 95 % 983,6 hPa 0,0 l/m 0 min 2 min 12 W/m 19,3 km/h (3 Bft) 100,00 %
27.01.2019 16:28 4,9 C 3,9 C 3,3 C 95 % 983,8 hPa 0,0 l/m 0 min 2 min 11 W/m 19,3 km/h (3 Bft) 100,00 %
27.01.2019 16:30 4,9 C 3,9 C 3,3 C 95 % 983,8 hPa 0,2 l/m 0 min 2 min 9 W/m 19,3 km/h (3 Bft) 97,87 %
27.01.2019 16:32 4,8 C 3,9 C 3,3 C 95 % 983,9 hPa 0,0 l/m 0 min 2 min 11 W/m 25,7 km/h (4 Bft) 100,00 %
27.01.2019 16:34 4,8 C 3,9 C 3,3 C 95 % 983,9 hPa 0,0 l/m 0 min 2 min 9 W/m 19,3 km/h (3 Bft) 100,00 %
27.01.2019 16:36 4,8 C 3,9 C 3,3 C 95 % 984,0 hPa 0,0 l/m 0 min 2 min 7 W/m 22,5 km/h (4 Bft) 100,00 %
27.01.2019 16:38 4,8 C 3,9 C 3,3 C 95 % 984,0 hPa 0,0 l/m 0 min 2 min 7 W/m 19,3 km/h (3 Bft) 100,00 %
27.01.2019 16:40 4,7 C 3,9 C 3,3 C 95 % 984,1 hPa 0,0 l/m 0 min 2 min 7 W/m 19,3 km/h (3 Bft) 100,00 %
27.01.2019 16:42 4,7 C 3,9 C 3,3 C 95 % 984,1 hPa 0,0 l/m 0 min 2 min 7 W/m 19,3 km/h (3 Bft) 100,00 %
27.01.2019 16:44 4,7 C 3,9 C 3,3 C 95 % 984,1 hPa 0,0 l/m 0 min 0 min 7 W/m 25,7 km/h (4 Bft) 100,00 %
27.01.2019 16:46 4,7 C 3,3 C 3,3 C 95 % 984,2 hPa 0,0 l/m 0 min 0 min 7 W/m 22,5 km/h (4 Bft) 100,00 %
27.01.2019 16:48 4,7 C 3,3 C 3,3 C 95 % 984,3 hPa 0,0 l/m 0 min 0 min 7 W/m 19,3 km/h (3 Bft) 97,87 %
27.01.2019 16:50 4,6 C 3,3 C 3,3 C 95 % 984,3 hPa 0,0 l/m 0 min 0 min 7 W/m 19,3 km/h (3 Bft) 100,00 %
27.01.2019 16:52 4,6 C 3,3 C 3,3 C 96 % 984,4 hPa 0,0 l/m 0 min 0 min 7 W/m 19,3 km/h (3 Bft) 97,87 %
27.01.2019 16:54 4,6 C 3,3 C 3,3 C 96 % 984,4 hPa 0,0 l/m 0 min 2 min 7 W/m 12,9 km/h (3 Bft) 100,00 %
27.01.2019 16:56 4,6 C 3,3 C 3,3 C 96 % 984,4 hPa 0,0 l/m 0 min 2 min 7 W/m 22,5 km/h (4 Bft) 100,00 %
27.01.2019 16:58 4,5 C 3,3 C 3,3 C 96 % 984,5 hPa 0,0 l/m 0 min 2 min 7 W/m 22,5 km/h (4 Bft) 100,00 %
27.01.2019 17:00 4,5 C 3,3 C 3,3 C 96 % 984,6 hPa 0,0 l/m 0 min 0 min 5 W/m 12,9 km/h (3 Bft) 95,74 %
27.01.2019 17:02 4,5 C 3,3 C 3,3 C 96 % 984,6 hPa 0,0 l/m 0 min 0 min 5 W/m 12,9 km/h (3 Bft) 95,74 %
27.01.2019 17:04 4,4 C 3,3 C 3,3 C 96 % 984,6 hPa 0,0 l/m 0 min 0 min 5 W/m 19,3 km/h (3 Bft) 95,74 %
27.01.2019 17:06 4,4 C 3,3 C 3,3 C 96 % 984,6 hPa 0,0 l/m 0 min 0 min 5 W/m 16,1 km/h (3 Bft) 94,83 %
27.01.2019 17:08 4,4 C 3,3 C 3,3 C 96 % 984,7 hPa 0,0 l/m 0 min 0 min 5 W/m 22,5 km/h (4 Bft) 97,30 %
27.01.2019 17:10 4,4 C 3,3 C 2,8 C 96 % 984,7 hPa 0,0 l/m 0 min 0 min 5 W/m 25,7 km/h (4 Bft) 95,65 %
27.01.2019 17:12 4,4 C 3,3 C 2,8 C 96 % 984,8 hPa 0,0 l/m 0 min 0 min 0 W/m 29,0 km/h (5 Bft) 95,74 %
27.01.2019 17:14 4,3 C 3,3 C 2,8 C 96 % 984,8 hPa 0,0 l/m 0 min 0 min 0 W/m 12,9 km/h (3 Bft) 95,74 %
27.01.2019 17:16 4,3 C 3,3 C 2,8 C 96 % 984,9 hPa 0,0 l/m 0 min 0 min 0 W/m 9,7 km/h (2 Bft) 93,62 %
27.01.2019 17:18 4,3 C 3,3 C 2,8 C 96 % 984,9 hPa 0,0 l/m 0 min 0 min 0 W/m 9,7 km/h (2 Bft) 93,62 %
27.01.2019 17:20 4,3 C 3,3 C 2,8 C 96 % 984,9 hPa 0,0 l/m 0 min 0 min 0 W/m 12,9 km/h (3 Bft) 97,14 %
27.01.2019 17:22 4,3 C 3,3 C 2,8 C 96 % 985,0 hPa 0,0 l/m 0 min 0 min 0 W/m 22,5 km/h (4 Bft) 93,22 %
27.01.2019 17:24 4,3 C 3,3 C 2,8 C 96 % 985,1 hPa 0,0 l/m 0 min 2 min 0 W/m 12,9 km/h (3 Bft) 95,74 %
27.01.2019 17:26 4,3 C 3,3 C 2,8 C 96 % 985,1 hPa 0,2 l/m 0 min 2 min 0 W/m 12,9 km/h (3 Bft) 97,87 %
27.01.2019 17:28 4,3 C 3,3 C 2,8 C 96 % 985,1 hPa 0,0 l/m 0 min 2 min 0 W/m 16,1 km/h (3 Bft) 95,74 %
27.01.2019 17:30 4,3 C 3,3 C 2,8 C 96 % 985,2 hPa 0,0 l/m 0 min 2 min 0 W/m 29,0 km/h (5 Bft) 95,74 %
27.01.2019 17:32 4,3 C 3,3 C 2,8 C 96 % 985,2 hPa 0,0 l/m 0 min 2 min 0 W/m 16,1 km/h (3 Bft) 93,62 %
27.01.2019 17:34 4,3 C 3,3 C 2,8 C 96 % 985,2 hPa 0,0 l/m 0 min 2 min 0 W/m 12,9 km/h (3 Bft) 95,65 %
27.01.2019 17:36 4,2 C 3,3 C 2,8 C 96 % 985,2 hPa 0,0 l/m 0 min 2 min 0 W/m 16,1 km/h (3 Bft) 93,62 %
27.01.2019 17:38 4,2 C 3,3 C 2,8 C 96 % 985,3 hPa 0,0 l/m 0 min 0 min 0 W/m 22,5 km/h (4 Bft) 95,74 %
27.01.2019 17:40 4,2 C 3,3 C 2,8 C 96 % 985,2 hPa 0,0 l/m 0 min 2 min 0 W/m 12,9 km/h (3 Bft) 95,74 %
27.01.2019 17:42 4,2 C 3,3 C 2,8 C 96 % 985,3 hPa 0,0 l/m 0 min 2 min 0 W/m 16,1 km/h (3 Bft) 91,49 %
27.01.2019 17:44 4,2 C 3,3 C 2,8 C 96 % 985,3 hPa 0,0 l/m 0 min 0 min 0 W/m 22,5 km/h (4 Bft) 95,74 %
27.01.2019 17:46 4,2 C 3,3 C 2,8 C 96 % 985,4 hPa 0,0 l/m 0 min 2 min 0 W/m 25,7 km/h (4 Bft) 95,65 %
27.01.2019 17:48 4,2 C 2,8 C 2,8 C 96 % 985,4 hPa 0,0 l/m 0 min 2 min 0 W/m 22,5 km/h (4 Bft) 93,62 %
27.01.2019 17:50 4,1 C 3,3 C 2,8 C 96 % 985,4 hPa 0,0 l/m 0 min 0 min 0 W/m 16,1 km/h (3 Bft) 93,62 %
27.01.2019 17:52 4,1 C 3,3 C 2,8 C 96 % 985,4 hPa 0,0 l/m 0 min 0 min 0 W/m 12,9 km/h (3 Bft) 93,62 %
27.01.2019 17:54 4,1 C 3,3 C 2,8 C 96 % 985,6 hPa 0,0 l/m 0 min 0 min 0 W/m 19,3 km/h (3 Bft) 97,87 %
27.01.2019 17:56 4,1 C 3,3 C 2,8 C 96 % 985,6 hPa 0,0 l/m 0 min 2 min 0 W/m 19,3 km/h (3 Bft) 95,65 %
27.01.2019 17:58 4,1 C 3,3 C 2,8 C 96 % 985,6 hPa 0,0 l/m 0 min 0 min 0 W/m 19,3 km/h (3 Bft) 100,00 %
27.01.2019 18:00 4,0 C 2,8 C 2,8 C 96 % 985,6 hPa 0,0 l/m 0 min 0 min 0 W/m 22,5 km/h (4 Bft) 100,00 %
27.01.2019 18:02 4,0 C 2,8 C 2,8 C 96 % 985,7 hPa 0,0 l/m 0 min 0 min 0 W/m 22,5 km/h (4 Bft) 100,00 %
27.01.2019 18:04 3,9 C 2,8 C 2,8 C 96 % 985,7 hPa 0,0 l/m 0 min 0 min 0 W/m 16,1 km/h (3 Bft) 100,00 %
27.01.2019 18:08 3,9 C 2,8 C 2,2 C 96 % 985,8 hPa 0,0 l/m 0 min 0 min 0 W/m 25,7 km/h (4 Bft) 98,92 %
27.01.2019 18:10 3,8 C 2,8 C 2,2 C 96 % 985,8 hPa 0,0 l/m 0 min 0 min 0 W/m 19,3 km/h (3 Bft) 97,87 %
27.01.2019 18:12 3,8 C 2,8 C 2,2 C 96 % 985,7 hPa 0,0 l/m 0 min 0 min 0 W/m 12,9 km/h (3 Bft) 95,74 %
27.01.2019 18:14 3,8 C 2,8 C 2,2 C 96 % 985,8 hPa 0,0 l/m 0 min 0 min 0 W/m 16,1 km/h (3 Bft) 97,87 %
27.01.2019 18:16 3,8 C 2,8 C 2,2 C 96 % 985,8 hPa 0,0 l/m 0 min 0 min 0 W/m 9,7 km/h (2 Bft) 97,87 %
27.01.2019 18:18 3,8 C 2,8 C 2,2 C 96 % 985,8 hPa 0,0 l/m 0 min 0 min 0 W/m 12,9 km/h (3 Bft) 97,87 %
27.01.2019 18:20 3,7 C 2,8 C 2,2 C 96 % 985,8 hPa 0,0 l/m 0 min 0 min 0 W/m 12,9 km/h (3 Bft) 97,83 %
27.01.2019 18:22 3,8 C 2,8 C 2,2 C 96 % 985,9 hPa 0,0 l/m 0 min 0 min 0 W/m 12,9 km/h (3 Bft) 97,87 %
27.01.2019 18:24 3,8 C 2,8 C 2,8 C 96 % 985,9 hPa 0,0 l/m 0 min 0 min 0 W/m 16,1 km/h (3 Bft) 97,87 %
27.01.2019 18:26 3,8 C 2,8 C 2,8 C 96 % 985,9 hPa 0,0 l/m 0 min 0 min 0 W/m 25,7 km/h (4 Bft) 95,74 %
27.01.2019 18:28 3,8 C 2,8 C 2,8 C 96 % 985,9 hPa 0,0 l/m 0 min 0 min 0 W/m 16,1 km/h (3 Bft) 97,87 %
27.01.2019 18:30 3,8 C 2,8 C 2,8 C 96 % 986,0 hPa 0,0 l/m 0 min 0 min 0 W/m 16,1 km/h (3 Bft) 95,74 %
27.01.2019 18:32 3,8 C 2,8 C 2,8 C 96 % 986,1 hPa 0,0 l/m 0 min 0 min 0 W/m 19,3 km/h (3 Bft) 97,83 %
27.01.2019 18:34 3,8 C 2,8 C 2,8 C 96 % 986,0 hPa 0,0 l/m 0 min 0 min 0 W/m 29,0 km/h (5 Bft) 97,87 %
27.01.2019 18:36 3,8 C 2,8 C 2,8 C 96 % 986,1 hPa 0,0 l/m 0 min 0 min 0 W/m 12,9 km/h (3 Bft) 97,87 %
27.01.2019 18:38 3,8 C 2,8 C 2,8 C 96 % 986,1 hPa 0,0 l/m 0 min 0 min 0 W/m 16,1 km/h (3 Bft) 97,87 %
27.01.2019 18:40 3,8 C 2,8 C 2,8 C 96 % 986,1 hPa 0,0 l/m 0 min 0 min 0 W/m 19,3 km/h (3 Bft) 97,87 %
27.01.2019 18:42 3,8 C 2,8 C 2,8 C 96 % 986,2 hPa 0,0 l/m 0 min 0 min 0 W/m 12,9 km/h (3 Bft) 97,87 %
27.01.2019 18:44 3,8 C 2,8 C 2,2 C 96 % 986,2 hPa 0,0 l/m 0 min 0 min 0 W/m 19,3 km/h (3 Bft) 97,83 %
27.01.2019 18:46 3,8 C 2,8 C 2,2 C 96 % 986,3 hPa 0,0 l/m 0 min 0 min 0 W/m 22,5 km/h (4 Bft) 97,87 %
27.01.2019 18:48 3,8 C 2,8 C 2,2 C 96 % 986,3 hPa 0,0 l/m 0 min 0 min 0 W/m 16,1 km/h (3 Bft) 95,74 %
27.01.2019 18:50 3,8 C 2,8 C 2,2 C 96 % 986,3 hPa 0,0 l/m 0 min 0 min 0 W/m 32,2 km/h (5 Bft) 97,87 %
27.01.2019 18:52 3,8 C 2,8 C 2,2 C 96 % 986,3 hPa 0,0 l/m 0 min 0 min 0 W/m 16,1 km/h (3 Bft) 95,74 %
27.01.2019 18:54 3,8 C 2,8 C 2,2 C 96 % 986,3 hPa 0,0 l/m 0 min 2 min 0 W/m 25,7 km/h (4 Bft) 100,00 %
27.01.2019 18:56 3,7 C 2,8 C 2,2 C 96 % 986,4 hPa 0,0 l/m 0 min 2 min 0 W/m 16,1 km/h (3 Bft) 100,00 %
27.01.2019 18:58 3,7 C 2,8 C 2,2 C 96 % 986,4 hPa 0,0 l/m 0 min 2 min 0 W/m 19,3 km/h (3 Bft) 100,00 %
27.01.2019 19:00 3,7 C 2,8 C 2,2 C 96 % 986,4 hPa 0,0 l/m 0 min 2 min 0 W/m 12,9 km/h (3 Bft) 100,00 %
27.01.2019 19:02 3,7 C 2,8 C 2,2 C 96 % 986,4 hPa 0,0 l/m 0 min 0 min 0 W/m 22,5 km/h (4 Bft) 93,62 %
27.01.2019 19:04 3,7 C 2,8 C 2,2 C 96 % 986,5 hPa 0,0 l/m 0 min 2 min 0 W/m 19,3 km/h (3 Bft) 100,00 %
27.01.2019 19:06 3,7 C 2,8 C 2,2 C 96 % 986,6 hPa 0,0 l/m 0 min 2 min 0 W/m 16,1 km/h (3 Bft) 100,00 %
27.01.2019 19:08 3,7 C 2,8 C 2,2 C 96 % 986,6 hPa 0,0 l/m 0 min 2 min 0 W/m 19,3 km/h (3 Bft) 100,00 %
27.01.2019 19:10 3,7 C 2,8 C 2,2 C 96 % 986,6 hPa 0,0 l/m 0 min 2 min 0 W/m 12,9 km/h (3 Bft) 100,00 %
27.01.2019 19:12 3,7 C 2,8 C 2,2 C 95 % 986,7 hPa 0,0 l/m 0 min 2 min 0 W/m 19,3 km/h (3 Bft) 100,00 %
27.01.2019 19:14 3,7 C 2,8 C 2,2 C 95 % 986,8 hPa 0,0 l/m 0 min 2 min 0 W/m 12,9 km/h (3 Bft) 100,00 %
27.01.2019 19:16 3,7 C 2,8 C 2,2 C 95 % 986,7 hPa 0,0 l/m 0 min 2 min 0 W/m 16,1 km/h (3 Bft) 100,00 %
27.01.2019 19:18 3,7 C 2,8 C 2,2 C 95 % 986,8 hPa 0,2 l/m 0 min 2 min 0 W/m 16,1 km/h (3 Bft) 100,00 %
27.01.2019 19:20 3,7 C 2,8 C 2,2 C 95 % 986,8 hPa 0,0 l/m 0 min 2 min 0 W/m 12,9 km/h (3 Bft) 100,00 %
27.01.2019 19:22 3,7 C 2,8 C 2,2 C 95 % 986,8 hPa 0,0 l/m 0 min 2 min 0 W/m 12,9 km/h (3 Bft) 100,00 %
27.01.2019 19:24 3,6 C 2,8 C 2,2 C 95 % 986,8 hPa 0,0 l/m 0 min 0 min 0 W/m 9,7 km/h (2 Bft) 100,00 %
27.01.2019 19:26 3,6 C 2,8 C 2,2 C 95 % 986,8 hPa 0,0 l/m 0 min 0 min 0 W/m 12,9 km/h (3 Bft) 100,00 %
27.01.2019 19:28 3,6 C 2,8 C 2,2 C 95 % 986,9 hPa 0,0 l/m 0 min 2 min 0 W/m 16,1 km/h (3 Bft) 100,00 %
27.01.2019 19:30 3,6 C 2,8 C 2,2 C 96 % 986,9 hPa 0,0 l/m 0 min 0 min 0 W/m 9,7 km/h (2 Bft) 97,83 %
27.01.2019 19:32 3,6 C 2,8 C 2,2 C 96 % 986,8 hPa 0,0 l/m 0 min 0 min 0 W/m 12,9 km/h (3 Bft) 100,00 %
27.01.2019 19:34 3,6 C 2,8 C 2,2 C 96 % 986,9 hPa 0,0 l/m 0 min 0 min 0 W/m 9,7 km/h (2 Bft) 100,00 %
27.01.2019 19:36 3,6 C 2,8 C 2,2 C 96 % 987,0 hPa 0,0 l/m 0 min 0 min 0 W/m 9,7 km/h (2 Bft) 100,00 %
27.01.2019 19:38 3,6 C 2,8 C 2,2 C 96 % 986,9 hPa 0,0 l/m 0 min 0 min 0 W/m 12,9 km/h (3 Bft) 95,74 %
27.01.2019 19:40 3,6 C 2,8 C 2,2 C 96 % 987,0 hPa 0,0 l/m 0 min 0 min 0 W/m 9,7 km/h (2 Bft) 97,87 %
27.01.2019 19:42 3,6 C 2,8 C 2,2 C 96 % 987,0 hPa 0,0 l/m 0 min 0 min 0 W/m 9,7 km/h (2 Bft) 97,83 %
27.01.2019 19:44 3,6 C 2,8 C 2,2 C 96 % 987,0 hPa 0,0 l/m 0 min 0 min 0 W/m 12,9 km/h (3 Bft) 100,00 %
27.01.2019 19:46 3,6 C 2,8 C 2,2 C 96 % 986,9 hPa 0,0 l/m 0 min 0 min 0 W/m 12,9 km/h (3 Bft) 97,87 %
27.01.2019 19:48 3,6 C 2,8 C 2,2 C 96 % 987,0 hPa 0,0 l/m 0 min 0 min 0 W/m 12,9 km/h (3 Bft) 97,87 %
27.01.2019 19:50 3,6 C 2,8 C 2,2 C 96 % 987,1 hPa 0,0 l/m 0 min 0 min 0 W/m 16,1 km/h (3 Bft) 95,74 %
27.01.2019 19:52 3,6 C 2,8 C 2,2 C 96 % 987,1 hPa 0,0 l/m 0 min 0 min 0 W/m 12,9 km/h (3 Bft) 100,00 %
27.01.2019 19:54 3,6 C 2,8 C 2,2 C 95 % 987,1 hPa 0,0 l/m 0 min 0 min 0 W/m 16,1 km/h (3 Bft) 100,00 %
27.01.2019 19:56 3,5 C 2,8 C 2,2 C 95 % 987,1 hPa 0,0 l/m 0 min 0 min 0 W/m 16,1 km/h (3 Bft) 95,74 %
27.01.2019 19:58 3,5 C 2,8 C 2,2 C 95 % 987,1 hPa 0,0 l/m 0 min 0 min 0 W/m 12,9 km/h (3 Bft) 97,87 %
27.01.2019 20:00 3,5 C 2,8 C 2,2 C 95 % 987,2 hPa 0,0 l/m 0 min 0 min 0 W/m 9,7 km/h (2 Bft) 97,87 %
27.01.2019 20:02 3,5 C 2,8 C 2,2 C 95 % 987,2 hPa 0,0 l/m 0 min 0 min 0 W/m 12,9 km/h (3 Bft) 97,87 %
27.01.2019 20:04 3,5 C 2,8 C 2,2 C 95 % 987,2 hPa 0,0 l/m 0 min 0 min 0 W/m 9,7 km/h (2 Bft) 97,83 %
27.01.2019 20:06 3,5 C 2,8 C 2,2 C 95 % 987,2 hPa 0,0 l/m 0 min 0 min 0 W/m 12,9 km/h (3 Bft) 95,74 %
27.01.2019 20:08 3,5 C 2,8 C 2,2 C 95 % 987,2 hPa 0,0 l/m 0 min 0 min 0 W/m 12,9 km/h (3 Bft) 98,15 %
27.01.2019 20:10 3,5 C 2,8 C 2,2 C 95 % 987,2 hPa 0,0 l/m 0 min 0 min 0 W/m 16,1 km/h (3 Bft) 97,14 %
27.01.2019 20:12 3,5 C 2,8 C 2,2 C 95 % 987,2 hPa 0,0 l/m 0 min 0 min 0 W/m 12,9 km/h (3 Bft) 97,87 %
27.01.2019 20:14 3,5 C 2,8 C 2,2 C 95 % 987,3 hPa 0,0 l/m 0 min 0 min 0 W/m 12,9 km/h (3 Bft) 95,74 %
27.01.2019 20:16 3,5 C 2,8 C 2,2 C 95 % 987,2 hPa 0,0 l/m 0 min 0 min 0 W/m 9,7 km/h (2 Bft) 95,92 %
27.01.2019 20:18 3,4 C 2,8 C 2,2 C 95 % 987,2 hPa 0,0 l/m 0 min 0 min 0 W/m 9,7 km/h (2 Bft) 97,87 %
27.01.2019 20:20 3,4 C 2,8 C 2,2 C 95 % 987,2 hPa 0,0 l/m 0 min 0 min 0 W/m 9,7 km/h (2 Bft) 97,87 %
27.01.2019 20:22 3,4 C 2,8 C 2,2 C 95 % 987,2 hPa 0,0 l/m 0 min 0 min 0 W/m 16,1 km/h (3 Bft) 97,87 %
27.01.2019 20:24 3,4 C 2,8 C 2,2 C 95 % 987,3 hPa 0,0 l/m 0 min 0 min 0 W/m 12,9 km/h (3 Bft) 97,87 %
27.01.2019 20:26 3,4 C 2,2 C 1,7 C 95 % 987,3 hPa 0,0 l/m 0 min 0 min 0 W/m 12,9 km/h (3 Bft) 93,62 %
27.01.2019 20:28 3,4 C 2,2 C 1,7 C 95 % 987,3 hPa 0,0 l/m 0 min 0 min 0 W/m 9,7 km/h (2 Bft) 95,65 %
27.01.2019 20:30 3,4 C 2,2 C 1,7 C 95 % 987,3 hPa 0,0 l/m 0 min 0 min 0 W/m 12,9 km/h (3 Bft) 95,83 %
27.01.2019 20:32 3,4 C 2,2 C 1,7 C 95 % 987,3 hPa 0,0 l/m 0 min 0 min 0 W/m 9,7 km/h (2 Bft) 95,74 %
27.01.2019 20:34 3,4 C 2,2 C 1,7 C 95 % 987,3 hPa 0,0 l/m 0 min 0 min 0 W/m 9,7 km/h (2 Bft) 93,62 %
27.01.2019 20:36 3,3 C 2,2 C 1,7 C 95 % 987,3 hPa 0,0 l/m 0 min 0 min 0 W/m 12,9 km/h (3 Bft) 93,62 %
27.01.2019 20:38 3,3 C 2,2 C 1,7 C 95 % 987,4 hPa 0,0 l/m 0 min 0 min 0 W/m 12,9 km/h (3 Bft) 95,74 %
27.01.2019 20:40 3,3 C 2,2 C 1,7 C 95 % 987,3 hPa 0,0 l/m 0 min 0 min 0 W/m 16,1 km/h (3 Bft) 97,83 %
27.01.2019 20:42 3,2 C 2,2 C 1,7 C 95 % 987,4 hPa 0,0 l/m 0 min 0 min 0 W/m 12,9 km/h (3 Bft) 97,87 %
27.01.2019 20:44 3,2 C 2,2 C 1,7 C 95 % 987,4 hPa 0,0 l/m 0 min 0 min 0 W/m 12,9 km/h (3 Bft) 95,74 %
27.01.2019 20:46 3,2 C 2,2 C 1,7 C 95 % 987,4 hPa 0,0 l/m 0 min 0 min 0 W/m 9,7 km/h (2 Bft) 95,74 %
27.01.2019 20:48 3,2 C 2,2 C 1,7 C 95 % 987,5 hPa 0,0 l/m 0 min 0 min 0 W/m 19,3 km/h (3 Bft) 93,62 %
27.01.2019 20:50 3,1 C 2,2 C 1,1 C 95 % 987,5 hPa 0,0 l/m 0 min 0 min 0 W/m 9,7 km/h (2 Bft) 95,74 %
27.01.2019 20:52 3,1 C 2,2 C 1,1 C 94 % 987,5 hPa 0,0 l/m 0 min 0 min 0 W/m 9,7 km/h (2 Bft) 93,48 %
27.01.2019 20:54 3,1 C 2,2 C 1,1 C 94 % 987,6 hPa 0,0 l/m 0 min 0 min 0 W/m 16,1 km/h (3 Bft) 95,74 %
27.01.2019 20:56 3,1 C 2,2 C 1,7 C 94 % 987,7 hPa 0,0 l/m 0 min 0 min 0 W/m 22,5 km/h (4 Bft) 95,74 %
27.01.2019 20:58 3,0 C 2,2 C 1,7 C 94 % 987,6 hPa 0,0 l/m 0 min 0 min 0 W/m 22,5 km/h (4 Bft) 95,74 %
27.01.2019 21:00 3,0 C 2,2 C 1,7 C 94 % 987,5 hPa 0,0 l/m 0 min 0 min 0 W/m 19,3 km/h (3 Bft) 95,74 %
27.01.2019 21:02 3,0 C 2,2 C 1,7 C 94 % 987,8 hPa 0,0 l/m 0 min 0 min 0 W/m 12,9 km/h (3 Bft) 95,65 %
27.01.2019 21:04 2,9 C 2,2 C 1,7 C 94 % 987,7 hPa 0,0 l/m 0 min 0 min 0 W/m 12,9 km/h (3 Bft) 95,74 %
27.01.2019 21:06 2,9 C 2,2 C 1,7 C 94 % 987,8 hPa 0,0 l/m 0 min 0 min 0 W/m 19,3 km/h (3 Bft) 93,62 %
27.01.2019 21:08 2,9 C 2,2 C 1,7 C 94 % 987,8 hPa 0,0 l/m 0 min 0 min 0 W/m 19,3 km/h (3 Bft) 95,74 %
27.01.2019 21:10 2,9 C 2,2 C 1,7 C 94 % 987,8 hPa 0,0 l/m 0 min 0 min 0 W/m 12,9 km/h (3 Bft) 95,74 %
27.01.2019 21:12 2,9 C 2,2 C 1,7 C 94 % 987,8 hPa 0,0 l/m 0 min 0 min 0 W/m 12,9 km/h (3 Bft) 95,74 %
27.01.2019 21:14 2,9 C 2,2 C 1,7 C 94 % 987,8 hPa 0,0 l/m 0 min 0 min 0 W/m 9,7 km/h (2 Bft) 95,65 %
27.01.2019 21:16 2,9 C 2,2 C 1,7 C 94 % 987,8 hPa 0,0 l/m 0 min 0 min 0 W/m 12,9 km/h (3 Bft) 95,74 %
27.01.2019 21:18 2,9 C 2,2 C 1,7 C 94 % 987,8 hPa 0,0 l/m 0 min 0 min 0 W/m 19,3 km/h (3 Bft) 95,74 %
27.01.2019 21:20 2,9 C 2,2 C 1,7 C 94 % 987,8 hPa 0,0 l/m 0 min 0 min 0 W/m 12,9 km/h (3 Bft) 95,74 %
27.01.2019 21:22 2,9 C 2,2 C 1,7 C 94 % 987,9 hPa 0,0 l/m 0 min 0 min 0 W/m 19,3 km/h (3 Bft) 95,74 %
27.01.2019 21:24 2,9 C 2,2 C 1,7 C 94 % 987,9 hPa 0,0 l/m 0 min 0 min 0 W/m 19,3 km/h (3 Bft) 93,62 %
27.01.2019 21:26 2,9 C 2,2 C 1,7 C 94 % 987,8 hPa 0,0 l/m 0 min 0 min 0 W/m 16,1 km/h (3 Bft) 97,83 %
27.01.2019 21:28 2,9 C 2,2 C 1,7 C 94 % 987,9 hPa 0,0 l/m 0 min 0 min 0 W/m 19,3 km/h (3 Bft) 97,87 %
27.01.2019 21:30 2,9 C 2,2 C 1,7 C 94 % 987,8 hPa 0,0 l/m 0 min 0 min 0 W/m 16,1 km/h (3 Bft) 97,87 %
27.01.2019 21:32 2,9 C 2,2 C 1,7 C 94 % 987,9 hPa 0,0 l/m 0 min 2 min 0 W/m 12,9 km/h (3 Bft) 100,00 %
27.01.2019 21:34 2,9 C 2,2 C 1,7 C 94 % 987,8 hPa 0,0 l/m 0 min 2 min 0 W/m 9,7 km/h (2 Bft) 100,00 %
27.01.2019 21:36 2,9 C 2,2 C 1,7 C 94 % 987,8 hPa 0,0 l/m 0 min 2 min 0 W/m 12,9 km/h (3 Bft) 100,00 %
27.01.2019 21:38 2,9 C 2,2 C 1,7 C 94 % 987,9 hPa 0,0 l/m 0 min 0 min 0 W/m 25,7 km/h (4 Bft) 100,00 %
27.01.2019 21:40 2,9 C 2,2 C 1,7 C 94 % 987,8 hPa 0,0 l/m 0 min 2 min 0 W/m 9,7 km/h (2 Bft) 100,00 %
27.01.2019 21:42 2,9 C 2,2 C 1,7 C 94 % 987,8 hPa 0,0 l/m 0 min 0 min 0 W/m 16,1 km/h (3 Bft) 100,00 %
27.01.2019 21:44 2,9 C 2,2 C 1,7 C 94 % 987,8 hPa 0,0 l/m 0 min 0 min 0 W/m 16,1 km/h (3 Bft) 97,87 %
27.01.2019 21:46 2,9 C 2,2 C 1,7 C 94 % 987,8 hPa 0,0 l/m 0 min 0 min 0 W/m 19,3 km/h (3 Bft) 100,00 %
27.01.2019 21:48 2,9 C 2,2 C 1,7 C 94 % 987,8 hPa 0,0 l/m 0 min 0 min 0 W/m 19,3 km/h (3 Bft) 100,00 %
27.01.2019 21:50 2,9 C 2,2 C 1,7 C 94 % 987,8 hPa 0,0 l/m 0 min 0 min 0 W/m 19,3 km/h (3 Bft) 100,00 %
27.01.2019 21:52 2,9 C 2,2 C 1,7 C 94 % 987,6 hPa 0,0 l/m 0 min 0 min 0 W/m 6,4 km/h (2 Bft) 100,00 %
27.01.2019 21:54 2,9 C 2,2 C 1,7 C 94 % 987,7 hPa 0,0 l/m 0 min 0 min 0 W/m 16,1 km/h (3 Bft) 97,87 %
27.01.2019 21:56 2,9 C 2,2 C 1,7 C 94 % 987,8 hPa 0,0 l/m 0 min 0 min 0 W/m 12,9 km/h (3 Bft) 100,00 %
27.01.2019 21:58 2,9 C 1,7 C 1,1 C 94 % 987,7 hPa 0,0 l/m 0 min 0 min 0 W/m 12,9 km/h (3 Bft) 100,00 %
27.01.2019 22:00 2,9 C 1,7 C 1,1 C 94 % 987,7 hPa 0,0 l/m 0 min 0 min 0 W/m 12,9 km/h (3 Bft) 100,00 %
27.01.2019 22:02 2,9 C 1,7 C 1,1 C 94 % 987,7 hPa 0,0 l/m 0 min 0 min 0 W/m 16,1 km/h (3 Bft) 100,00 %
27.01.2019 22:04 2,9 C 2,2 C 1,7 C 94 % 987,7 hPa 0,0 l/m 0 min 0 min 0 W/m 25,7 km/h (4 Bft) 97,87 %
27.01.2019 22:06 2,8 C 2,2 C 1,7 C 94 % 987,6 hPa 0,0 l/m 0 min 0 min 0 W/m 9,7 km/h (2 Bft) 97,87 %
27.01.2019 22:08 2,9 C 2,2 C 1,7 C 94 % 987,6 hPa 0,0 l/m 0 min 0 min 0 W/m 19,3 km/h (3 Bft) 100,00 %
27.01.2019 22:10 2,8 C 2,2 C 1,7 C 94 % 987,6 hPa 0,0 l/m 0 min 0 min 0 W/m 19,3 km/h (3 Bft) 100,00 %
27.01.2019 22:12 2,8 C 2,2 C 1,7 C 94 % 987,7 hPa 0,0 l/m 0 min 2 min 0 W/m 19,3 km/h (3 Bft) 100,00 %
27.01.2019 22:14 2,8 C 2,2 C 1,7 C 94 % 987,7 hPa 0,0 l/m 0 min 2 min 0 W/m 16,1 km/h (3 Bft) 100,00 %
27.01.2019 22:16 2,9 C 2,2 C 1,7 C 94 % 987,7 hPa 0,0 l/m 0 min 2 min 0 W/m 16,1 km/h (3 Bft) 97,87 %
27.01.2019 22:18 2,9 C 2,2 C 1,7 C 94 % 987,7 hPa 0,0 l/m 0 min 2 min 0 W/m 19,3 km/h (3 Bft) 97,87 %
27.01.2019 22:20 2,9 C 2,2 C 1,7 C 94 % 987,7 hPa 0,0 l/m 0 min 2 min 0 W/m 22,5 km/h (4 Bft) 97,87 %
27.01.2019 22:22 2,9 C 2,2 C 1,7 C 94 % 987,7 hPa 0,0 l/m 0 min 2 min 0 W/m 19,3 km/h (3 Bft) 97,87 %
27.01.2019 22:24 2,9 C 2,2 C 1,7 C 95 % 987,7 hPa 0,0 l/m 0 min 2 min 0 W/m 25,7 km/h (4 Bft) 97,83 %
27.01.2019 22:26 2,9 C 2,2 C 1,7 C 95 % 987,6 hPa 0,0 l/m 0 min 2 min 0 W/m 19,3 km/h (3 Bft) 97,87 %
27.01.2019 22:28 2,9 C 2,2 C 1,7 C 95 % 987,7 hPa 0,0 l/m 0 min 2 min 0 W/m 25,7 km/h (4 Bft) 100,00 %
27.01.2019 22:30 2,9 C 2,2 C 1,7 C 95 % 987,7 hPa 0,0 l/m 0 min 2 min 0 W/m 25,7 km/h (4 Bft) 100,00 %
27.01.2019 22:32 2,9 C 2,2 C 1,7 C 95 % 987,7 hPa 0,0 l/m 0 min 2 min 0 W/m 19,3 km/h (3 Bft) 97,96 %
27.01.2019 22:34 2,9 C 2,2 C 1,7 C 95 % 987,7 hPa 0,0 l/m 0 min 2 min 0 W/m 25,7 km/h (4 Bft) 97,83 %
27.01.2019 22:36 2,9 C 2,2 C 1,7 C 95 % 987,7 hPa 0,0 l/m 0 min 2 min 0 W/m 22,5 km/h (4 Bft) 95,74 %
27.01.2019 22:38 2,9 C 2,2 C 1,7 C 95 % 987,7 hPa 0,0 l/m 0 min 2 min 0 W/m 19,3 km/h (3 Bft) 97,87 %
27.01.2019 22:40 2,9 C 2,2 C 1,7 C 95 % 987,7 hPa 0,0 l/m 0 min 2 min 0 W/m 25,7 km/h (4 Bft) 97,87 %
27.01.2019 22:42 2,9 C 2,2 C 1,7 C 95 % 987,7 hPa 0,0 l/m 0 min 2 min 0 W/m 25,7 km/h (4 Bft) 97,87 %
27.01.2019 22:44 2,9 C 2,2 C 1,7 C 95 % 987,7 hPa 0,0 l/m 0 min 0 min 0 W/m 25,7 km/h (4 Bft) 97,87 %
27.01.2019 22:46 2,9 C 2,2 C 1,7 C 95 % 987,6 hPa 0,0 l/m 0 min 0 min 0 W/m 45,1 km/h (6 Bft) 97,83 %
27.01.2019 22:48 2,9 C 2,2 C 1,7 C 95 % 987,6 hPa 0,0 l/m 0 min 0 min 0 W/m 29,0 km/h (5 Bft) 97,87 %
27.01.2019 22:50 2,9 C 2,2 C 1,7 C 95 % 987,5 hPa 0,0 l/m 0 min 2 min 0 W/m 16,1 km/h (3 Bft) 95,74 %
27.01.2019 22:52 2,9 C 2,2 C 1,7 C 95 % 987,6 hPa 0,0 l/m 0 min 2 min 0 W/m 22,5 km/h (4 Bft) 97,87 %
27.01.2019 22:54 2,9 C 2,2 C 1,7 C 95 % 987,6 hPa 0,0 l/m 0 min 2 min 0 W/m 19,3 km/h (3 Bft) 97,87 %
27.01.2019 22:56 2,9 C 2,2 C 1,7 C 95 % 987,6 hPa 0,0 l/m 0 min 2 min 0 W/m 22,5 km/h (4 Bft) 95,74 %
27.01.2019 22:58 2,9 C 2,2 C 1,7 C 95 % 987,6 hPa 0,0 l/m 0 min 0 min 0 W/m 12,9 km/h (3 Bft) 97,83 %
27.01.2019 23:00 2,9 C 2,2 C 1,7 C 95 % 987,5 hPa 0,0 l/m 0 min 2 min 0 W/m 22,5 km/h (4 Bft) 97,87 %
27.01.2019 23:02 2,9 C 2,2 C 1,7 C 95 % 987,6 hPa 0,0 l/m 0 min 2 min 0 W/m 25,7 km/h (4 Bft) 95,74 %
27.01.2019 23:04 2,9 C 2,2 C 1,7 C 95 % 987,5 hPa 0,0 l/m 0 min 2 min 0 W/m 19,3 km/h (3 Bft) 97,87 %
27.01.2019 23:06 2,9 C 2,2 C 1,7 C 95 % 987,6 hPa 0,0 l/m 0 min 2 min 0 W/m 22,5 km/h (4 Bft) 97,87 %
27.01.2019 23:08 2,9 C 2,2 C 1,7 C 95 % 987,6 hPa 0,0 l/m 0 min 2 min 0 W/m 16,1 km/h (3 Bft) 97,87 %
27.01.2019 23:10 2,9 C 2,2 C 1,7 C 95 % 987,5 hPa 0,0 l/m 0 min 2 min 0 W/m 29,0 km/h (5 Bft) 97,83 %
27.01.2019 23:12 2,9 C 2,2 C 1,7 C 95 % 987,5 hPa 0,0 l/m 0 min 2 min 0 W/m 29,0 km/h (5 Bft) 97,87 %
27.01.2019 23:14 3,0 C 2,2 C 1,7 C 95 % 987,5 hPa 0,0 l/m 0 min 2 min 0 W/m 19,3 km/h (3 Bft) 97,87 %
27.01.2019 23:16 3,0 C 2,2 C 1,7 C 95 % 987,6 hPa 0,0 l/m 0 min 2 min 0 W/m 25,7 km/h (4 Bft) 97,87 %
27.01.2019 23:18 3,0 C 2,2 C 1,7 C 95 % 987,5 hPa 0,0 l/m 0 min 0 min 0 W/m 22,5 km/h (4 Bft) 97,87 %
27.01.2019 23:20 3,0 C 2,2 C 1,7 C 95 % 987,5 hPa 0,0 l/m 0 min 0 min 0 W/m 16,1 km/h (3 Bft) 97,87 %
27.01.2019 23:22 3,0 C 2,2 C 1,7 C 95 % 987,4 hPa 0,0 l/m 0 min 0 min 0 W/m 16,1 km/h (3 Bft) 100,00 %
27.01.2019 23:24 3,0 C 2,2 C 1,7 C 95 % 987,5 hPa 0,0 l/m 0 min 0 min 0 W/m 12,9 km/h (3 Bft) 97,87 %
27.01.2019 23:26 3,0 C 2,2 C 1,7 C 95 % 987,4 hPa 0,0 l/m 0 min 0 min 0 W/m 16,1 km/h (3 Bft) 95,74 %
27.01.2019 23:28 3,0 C 2,2 C 1,7 C 95 % 987,5 hPa 0,0 l/m 0 min 0 min 0 W/m 22,5 km/h (4 Bft) 97,87 %
27.01.2019 23:30 3,0 C 2,2 C 1,7 C 95 % 987,5 hPa 0,0 l/m 0 min 0 min 0 W/m 19,3 km/h (3 Bft) 97,87 %
27.01.2019 23:32 3,1 C 2,2 C 1,7 C 95 % 987,6 hPa 0,0 l/m 0 min 0 min 0 W/m 12,9 km/h (3 Bft) 97,83 %
27.01.2019 23:34 3,1 C 2,2 C 1,7 C 95 % 987,5 hPa 0,0 l/m 0 min 0 min 0 W/m 12,9 km/h (3 Bft) 97,87 %
27.01.2019 23:36 3,1 C 2,2 C 1,7 C 95 % 987,5 hPa 0,0 l/m 0 min 0 min 0 W/m 12,9 km/h (3 Bft) 97,87 %
27.01.2019 23:38 3,1 C 2,2 C 1,7 C 95 % 987,4 hPa 0,0 l/m 0 min 0 min 0 W/m 19,3 km/h (3 Bft) 97,87 %
27.01.2019 23:40 3,1 C 2,2 C 1,7 C 95 % 987,4 hPa 0,0 l/m 0 min 0 min 0 W/m 19,3 km/h (3 Bft) 97,87 %
27.01.2019 23:42 3,1 C 2,2 C 1,7 C 95 % 987,5 hPa 0,0 l/m 0 min 0 min 0 W/m 16,1 km/h (3 Bft) 94,29 %
27.01.2019 23:44 3,1 C 2,2 C 1,7 C 95 % 987,5 hPa 0,0 l/m 0 min 0 min 0 W/m 32,2 km/h (5 Bft) 96,67 %
27.01.2019 23:46 3,1 C 2,2 C 1,7 C 95 % 987,4 hPa 0,0 l/m 0 min 0 min 0 W/m 19,3 km/h (3 Bft) 97,83 %
27.01.2019 23:48 3,1 C 2,2 C 1,7 C 95 % 987,3 hPa 0,0 l/m 0 min 0 min 0 W/m 22,5 km/h (4 Bft) 97,87 %
27.01.2019 23:50 3,1 C 2,2 C 1,7 C 95 % 987,4 hPa 0,0 l/m 0 min 0 min 0 W/m 25,7 km/h (4 Bft) 97,87 %
27.01.2019 23:52 3,1 C 2,2 C 1,7 C 95 % 987,4 hPa 0,0 l/m 0 min 0 min 0 W/m 12,9 km/h (3 Bft) 97,87 %
27.01.2019 23:54 3,1 C 2,2 C 1,7 C 95 % 987,4 hPa 0,0 l/m 0 min 0 min 0 W/m 25,7 km/h (4 Bft) 95,74 %
27.01.2019 23:56 3,1 C 2,2 C 1,7 C 95 % 987,5 hPa 0,0 l/m 0 min 0 min 0 W/m 16,1 km/h (3 Bft) 95,65 %
27.01.2019 23:58 3,1 C 2,2 C 1,7 C 94 % 987,5 hPa 0,0 l/m 0 min 0 min 0 W/m 19,3 km/h (3 Bft) 93,62 %
_ Min-Zeit 22:06 21:58 20:50 10:36 13:38 - - - - 21:52 10:54
Minimum _ 2,8 C 1,7 C 1,1 C 89 % 982,0 hPa - - - - 6,4 km/h (2 Bft) 89,36 %
_ Max-Zeit 10:44 10:24 10:28 02:48 00:00 01:28 13:42 12:08 13:44 11:30 00:00
Maximum _ 7,1 C 7,2 C 6,1 C 96 % 992,8 hPa 0,2 l/m 2 min 4 min 267 W/m 51,5 km/h
S (7 Bft)
100,00 %
Durchschnitt _ 5,4 C 4,6 C 3,9 C 94 % 985,7 hPa #3,6 l/m #8 min. #8:58 h 49 W/m 19,6 km/h (3 Bft) 97,53 %
© 2019 W. Hausmann